GFSWCAN_850_thetae_000.txt.gz
Theta_e
309 314 313 314 314 314 315 315 315 315 316 316 316 317 317 316 316 316 318 318 316 318 318 319 319 318 318 318 321 317 317 318 315 315 314 315 315 317 317 315 316 316 316 316 314 317 318 316 317 316 315 316 314 313
308 309 312 314 314 314 314 314 315 315 315 316 317 317 317 316 316 316 316 317 317 317 318 319 318 318 318 317 317 317 316 317 316 317 314 314 314 314 312 315 313 315 315 316 315 316 315 315 315 315 314 314 313 313
308 309 310 310 310 311 312 314 314 314 314 315 316 316 317 316 316 316 316 316 316 316 316 315 315 315 316 316 317 317 317 316 316 316 315 309 311 314 314 314 314 314 313 314 314 313 313 313 313 313 314 313 311 311
305 307 309 310 311 311 311 311 312 314 314 313 314 314 314 314 314 314 316 316 316 315 312 315 314 314 314 315 317 316 316 316 316 315 315 307 308 310 311 312 313 313 312 312 312 313 312 313 313 313 313 312 310 309
301 303 304 306 308 310 310 311 312 312 313 313 313 313 313 314 314 313 313 313 314 315 311 313 313 313 313 315 315 315 316 315 315 315 311 308 312 311 312 310 311 311 312 313 313 312 313 313 313 312 311 310 309 306
299 299 300 302 304 306 308 311 312 312 312 312 312 312 312 313 313 313 312 313 313 314 313 305 310 311 312 313 313 314 315 315 315 315 313 313 312 311 308 312 311 312 311 312 312 311 311 312 311 310 309 306 305 303
299 300 300 301 301 303 304 306 308 310 312 312 313 313 313 314 313 313 312 311 311 311 311 310 308 307 310 311 312 313 313 314 314 314 313 312 311 311 305 312 311 311 311 310 310 311 309 309 309 307 305 304 302 302
299 300 300 301 302 303 303 304 305 306 308 310 312 313 313 313 311 309 310 311 310 310 309 305 304 305 307 308 309 310 310 311 312 311 310 310 310 310 309 310 310 310 309 310 309 309 308 305 304 303 302 302 301 302
298 300 300 301 301 302 303 303 304 306 308 309 309 310 312 308 307 306 307 308 308 309 305 300 305 308 306 306 306 305 305 303 306 307 308 308 310 310 310 309 309 309 309 308 307 305 304 302 302 301 301 301 301 301
298 299 300 300 300 300 301 302 302 303 304 306 307 307 305 304 303 304 304 304 304 302 301 300 303 307 307 304 303 303 303 303 306 306 307 309 309 309 309 308 308 307 304 303 303 302 301 301 301 300 300 300 301 299
297 299 300 299 300 300 300 301 302 302 303 303 302 301 302 302 302 302 301 300 300 300 299 301 303 307 304 304 303 302 303 304 307 307 310 310 308 307 306 307 305 303 302 302 301 300 300 300 300 300 299 299 299 296
298 299 299 299 299 299 299 300 300 301 301 301 301 300 300 301 302 302 303 302 302 305 303 303 303 303 304 304 304 304 304 306 305 304 305 306 306 305 305 304 303 301 300 300 299 299 298 298 299 299 297 298 299 297
298 299 300 299 300 299 299 300 300 299 299 299 299 300 301 300 303 302 303 304 305 303 301 302 302 301 301 300 301 302 303 303 302 305 305 306 305 305 304 301 300 299 298 297 295 296 297 297 297 298 297 295 297 296
299 299 300 299 298 298 299 299 298 298 299 299 298 299 301 301 300 302 303 302 299 299 300 300 299 301 299 299 300 301 302 303 304 304 305 305 302 302 301 300 299 298 297 296 295 294 296 297 297 297 297 295 296 295
297 297 298 298 298 298 298 297 296 296 298 298 298 299 300 300 299 298 299 299 298 298 299 300 300 299 300 299 300 301 300 301 302 304 305 302 300 301 299 299 299 298 297 296 295 295 296 296 296 296 296 296 294 290
296 296 297 298 297 295 295 294 295 296 294 297 296 298 298 298 298 296 296 298 298 299 297 297 299 298 298 299 299 299 300 300 302 306 300 299 299 299 297 296 298 298 297 295 295 296 296 296 295 295 294 293 292 289
294 295 295 296 295 294 293 295 295 293 294 293 296 295 297 297 297 297 297 297 298 297 298 297 297 297 298 299 298 299 301 302 299 298 298 298 298 298 297 296 297 296 296 296 295 296 295 295 294 293 292 292 290 290
294 295 295 295 293 292 293 294 294 294 294 294 295 295 294 295 296 296 295 296 297 297 295 296 295 297 297 296 298 299 298 298 297 297 296 296 296 295 296 296 295 294 296 296 296 296 295 295 294 293 292 290 290 290
294 294 293 292 292 293 293 293 294 294 294 295 294 294 295 295 295 294 295 295 295 295 295 295 296 296 297 296 297 296 296 296 296 296 296 295 295 295 295 294 294 294 295 295 296 295 294 293 293 292 290 291 291 291
293 293 292 292 293 293 293 293 293 294 294 294 293 293 294 294 294 294 294 294 294 294 294 294 295 295 295 295 295 295 295 295 295 295 295 294 294 295 294 294 294 294 294 294 295 293 294 292 291 291 291 292 291 291
292 291 291 292 293 293 294 292 292 291 293 293 294 294 294 294 294 294 294 293 293 293 293 293 293 293 293 294 294 294 294 294 295 295 295 294 294 294 294 294 294 294 294 295 294 293 293 292 292 291 291 291 290 290
293 291 291 291 292 291 292 293 293 293 293 293 293 293 293 294 294 294 293 294 294 294 294 294 294 294 294 294 294 294 294 294 293 293 293 293 294 294 294 294 294 294 294 294 293 293 293 292 292 292 291 290 289 289
292 291 291 291 291 292 292 293 293 293 293 293 292 293 294 294 293 293 294 293 294 294 294 294 294 294 294 293 293 293 292 293 293 294 294 294 294 294 294 293 293 293 293 293 293 293 292 292 291 291 291 290 289 289
292 292 292 291 291 293 292 293 293 293 293 293 294 293 294 293 293 293 294 294 293 293 293 293 293 294 294 294 294 294 293 294 294 294 294 294 293 293 292 292 293 293 292 293 293 293 292 290 291 291 289 289 289 289
292 292 292 293 292 293 293 293 293 293 293 294 294 294 293 293 293 293 294 293 293 293 294 294 293 293 293 293 293 293 293 293 294 294 293 292 291 292 292 293 293 293 293 293 292 291 291 291 290 289 289 289 289 288
293 292 292 293 293 293 293 292 293 294 294 294 293 293 292 293 293 293 293 293 293 293 292 292 292 291 291 292 293 293 293 293 293 292 292 292 292 292 292 292 292 292 291 291 291 290 290 290 289 289 289 289 287 287
293 293 293 292 293 293 293 293 293 294 293 293 294 294 293 293 293 293 292 292 293 293 293 293 292 292 292 292 292 292 292 292 292 291 291 292 292 292 291 291 291 292 291 290 290 291 290 290 290 289 289 288 286 286
292 292 293 293 293 293 294 294 293 293 293 292 293 293 293 293 293 292 293 293 293 293 293 292 292 292 292 291 291 291 291 292 291 290 291 291 292 291 292 291 291 291 291 291 291 291 290 289 289 289 288 286 286 286
292 292 292 293 293 293 293 293 293 292 292 292 294 294 293 293 293 293 293 293 293 292 292 292 292 292 291 290 290 291 291 289 289 289 289 289 290 291 291 292 292 291 291 291 291 291 291 290 289 288 287 286 286 286
292 292 292 292 293 293 292 292 292 292 292 292 292 292 292 292 292 292 293 293 293 292 292 292 292 291 290 289 289 289 289 289 289 289 288 288 288 289 290 290 290 290 291 291 291 291 289 289 288 288 287 287 286 286
291 292 292 293 293 293 292 292 292 292 292 292 292 292 292 292 292 292 292 292 292 292 292 291 290 288 288 288 288 288 287 288 288 288 288 288 288 288 288 288 288 288 288 287 287 287 287 287 287 286 286 285 285 284
292 292 292 293 293 293 292 292 293 293 293 293 293 292 292 292 293 292 291 291 290 289 287 286 286 286 286 285 286 285 286 287 287 287 287 287 287 287 287 287 287 287 287 286 286 286 286 285 285 284 283 282 282 281
291 291 291 291 292 292 292 292 293 293 292 293 293 293 293 293 292 287 287 287 286 286 285 286 286 285 284 285 285 285 286 286 286 286 286 286 286 286 286 285 285 285 285 285 284 284 284 283 283 282 282 281 281 280

GFSWCAN_850_thetae_003.txt.gz
Theta_e
313 315 313 313 313 314 313 314 314 315 315 315 316 316 317 318 318 318 317 318 317 319 318 318 318 317 318 318 308 317 313 314 309 308 310 309 311 307 309 311 309 308 307 310 308 315 312 313 312 310 311 313 313 313
308 312 313 313 313 313 313 314 314 314 314 315 316 316 317 317 318 317 317 317 318 317 317 318 317 317 317 318 318 317 316 316 314 305 305 306 310 309 309 314 311 311 309 307 309 309 311 312 312 312 312 312 313 313
307 309 311 312 313 314 313 314 314 315 315 315 315 316 316 317 317 317 317 317 317 317 316 316 315 314 316 317 317 317 316 316 316 315 311 307 311 307 312 311 308 312 313 310 309 311 312 312 311 311 312 313 312 311
308 308 309 309 311 313 314 313 314 314 314 315 315 315 316 316 316 317 317 317 317 316 314 315 314 314 314 314 315 316 315 316 316 316 316 305 308 311 309 311 311 311 311 309 310 311 311 311 311 312 312 312 311 309
302 305 307 308 309 310 311 311 311 311 312 314 314 314 314 314 315 315 315 315 316 316 312 313 314 313 313 313 313 313 314 315 315 315 310 307 310 310 309 307 308 311 311 311 311 311 311 311 311 311 311 307 306 305
299 300 302 303 304 306 308 309 310 311 311 312 314 313 313 313 314 314 314 314 314 314 315 307 312 313 313 312 312 312 314 316 315 315 314 314 313 312 307 312 311 311 311 312 311 312 311 311 310 308 306 305 303 302
299 298 299 299 300 301 303 304 307 311 311 312 313 313 313 313 313 313 313 313 313 313 314 311 308 309 310 310 311 312 313 314 314 314 314 313 312 312 304 312 311 311 311 311 310 311 310 309 306 304 302 302 302 302
299 299 299 300 301 301 301 301 302 304 307 310 312 312 312 313 311 311 312 312 312 312 311 306 305 307 308 309 310 310 311 311 312 312 310 310 311 310 307 310 310 310 310 310 310 309 306 304 302 301 301 301 301 301
299 298 299 300 301 302 302 302 303 303 304 306 309 311 312 309 307 308 310 310 310 310 308 304 304 307 306 306 307 306 306 303 306 305 307 308 305 309 308 309 309 309 309 307 306 304 303 301 300 300 301 300 300 300
298 298 299 300 300 300 301 302 303 304 306 308 309 309 308 306 306 307 306 306 307 306 304 301 303 304 306 304 303 303 303 302 304 303 305 304 305 308 308 307 308 308 305 304 304 302 301 301 300 299 300 300 299 298
297 298 299 299 300 301 301 301 301 303 305 305 305 304 303 303 303 304 303 301 300 300 299 300 302 304 304 303 302 301 301 301 303 299 300 297 301 305 305 306 307 305 302 301 300 298 297 297 298 298 298 298 298 297
296 297 299 299 299 299 300 301 302 302 302 303 303 302 301 302 302 301 301 301 300 300 300 300 302 304 303 302 302 301 300 299 300 302 299 301 299 303 305 305 302 302 301 299 298 296 296 295 295 296 297 297 298 297
296 297 298 300 299 299 299 300 301 300 300 301 299 300 301 300 301 300 300 302 300 302 302 302 302 302 301 301 300 300 301 301 301 300 299 297 303 304 303 301 300 300 300 299 297 296 294 294 295 296 297 298 297 296
298 298 299 299 299 299 299 300 299 300 299 300 299 295 295 297 295 299 299 301 299 301 301 301 300 300 299 298 298 298 295 297 296 296 296 296 301 302 302 301 301 300 298 297 298 296 294 294 295 295 296 296 295 294
298 299 298 299 300 299 298 299 299 299 298 298 298 294 293 299 298 299 299 298 299 300 300 299 298 299 298 294 293 292 293 298 294 294 293 299 299 300 300 299 298 297 298 298 297 295 294 295 296 295 295 294 294 292
299 299 299 298 298 298 297 297 297 297 295 298 297 295 298 299 297 296 297 298 299 298 296 298 297 291 291 291 292 292 293 294 293 296 298 298 298 298 297 298 298 297 297 297 296 294 296 296 296 296 294 293 293 292
296 297 297 297 297 295 295 296 296 295 294 293 296 296 297 297 297 298 297 297 298 296 292 297 291 293 295 290 292 294 292 291 298 297 296 296 296 296 296 296 296 296 296 295 294 294 296 295 296 295 294 293 292 291
295 295 296 296 296 294 295 294 294 293 293 294 295 295 295 296 296 296 296 297 297 297 296 292 295 290 287 288 288 290 296 296 295 295 294 294 296 296 295 295 295 295 295 295 294 294 295 294 295 294 293 292 292 291
294 294 294 295 294 293 293 294 294 293 293 295 295 295 295 295 294 295 296 296 296 297 295 295 288 287 289 294 294 294 295 295 296 296 295 294 294 295 295 295 295 295 295 294 294 294 294 294 294 292 292 291 291 291
294 294 294 293 293 293 293 293 293 293 294 295 294 293 294 293 293 293 294 294 294 295 295 290 290 294 294 294 295 295 295 294 294 294 295 294 295 295 294 294 294 294 294 294 294 294 294 294 293 293 292 292 291 292
293 292 292 293 294 293 293 292 292 292 292 293 294 294 293 293 294 294 294 293 292 293 293 293 292 292 292 292 292 292 293 293 294 295 295 295 293 293 294 294 294 295 294 294 293 293 294 294 293 293 292 292 292 291
292 292 292 293 292 292 292 292 292 292 292 292 292 293 293 294 294 294 294 294 293 293 292 292 292 292 292 293 293 294 294 294 294 294 293 293 294 294 294 294 294 294 294 293 293 293 293 293 293 293 292 291 290 290
291 291 291 291 292 291 291 292 293 293 292 293 292 292 293 293 293 293 294 294 293 293 293 293 293 293 293 294 294 294 293 294 294 294 294 294 293 294 293 293 293 292 293 293 293 292 293 293 292 293 292 291 291 290
292 291 291 291 291 291 292 292 292 293 293 292 287 287 289 294 293 293 287 293 293 293 293 293 293 293 293 293 294 294 294 294 293 293 293 293 293 292 292 292 292 292 291 292 293 292 293 293 291 290 290 291 291 289
292 292 292 292 292 292 290 288 292 291 285 286 286 285 290 293 286 284 286 292 292 292 292 293 293 294 294 294 293 291 291 292 293 293 292 292 292 291 291 291 291 291 292 292 292 292 291 290 291 291 290 289 289 288
292 292 291 292 292 290 289 285 286 286 285 285 287 293 293 288 286 286 290 292 292 292 292 293 293 293 293 292 292 292 292 293 293 293 292 291 291 290 289 290 291 291 291 292 291 291 291 290 290 290 290 288 288 288
292 289 292 292 293 292 292 293 293 291 285 285 284 287 286 288 285 289 292 292 292 293 293 294 293 293 293 292 292 292 292 291 292 291 291 291 290 290 289 290 290 291 290 292 291 290 290 290 291 290 289 289 288 288
291 292 289 292 292 293 289 289 285 286 286 292 292 286 286 286 287 292 292 293 293 293 293 293 293 293 292 292 292 292 292 290 290 290 289 289 288 289 289 290 291 291 291 291 291 291 291 291 291 289 290 289 289 287
292 292 292 292 293 293 292 289 290 292 292 292 290 289 291 292 292 292 292 292 292 292 293 292 292 293 293 292 292 292 291 289 288 289 289 289 289 288 288 289 289 290 290 290 290 290 290 291 291 290 289 288 287 286
291 291 292 292 285 286 292 292 292 291 292 292 292 292 292 292 292 292 292 292 293 293 293 294 293 293 292 292 291 289 288 288 288 288 289 289 288 288 288 288 288 289 289 289 289 289 289 289 289 289 288 287 287 286
291 291 292 292 290 291 291 291 291 292 292 292 292 292 292 292 292 292 292 292 292 293 292 291 291 290 289 289 288 287 287 287 287 287 287 287 287 286 287 288 287 288 287 287 287 287 286 287 287 287 287 286 285 285
292 292 292 290 291 291 292 292 292 292 292 293 293 293 293 293 292 292 292 292 292 291 289 288 287 287 287 287 286 285 285 285 285 286 286 286 286 286 286 286 286 286 286 286 286 286 285 285 285 285 284 284 283 282
291 291 291 291 291 291 291 291 291 292 292 291 292 292 293 293 293 288 286 286 286 286 286 286 285 285 284 283 284 283 284 285 285 285 285 285 285 285 285 285 285 285 285 285 284 284 284 284 284 283 283 282 282 281

GFSWCAN_850_thetae_006.txt.gz
Theta_e
313 313 313 313 313 312 313 313 313 314 314 315 315 316 316 316 317 317 316 317 316 317 317 318 318 317 317 317 306 316 313 312 306 308 307 305 309 305 308 309 307 307 305 308 306 309 312 311 311 310 310 311 310 310
309 313 314 313 313 313 313 313 313 314 313 315 315 315 316 317 317 317 317 317 318 318 317 317 317 317 317 318 318 317 315 314 314 305 305 299 308 307 303 312 309 312 308 306 306 307 309 310 311 311 311 310 310 311
307 309 313 314 313 313 313 313 313 313 314 314 314 315 315 316 317 317 317 317 317 317 317 317 316 315 315 316 317 318 316 317 316 315 309 305 309 306 312 311 309 309 310 307 308 310 310 310 311 310 310 311 311 309
308 308 311 313 313 313 313 313 313 314 314 314 314 314 315 315 316 317 317 317 316 316 315 315 315 314 315 314 315 315 316 316 316 315 314 305 308 310 309 311 310 311 311 310 311 311 310 310 310 310 310 310 306 305
305 307 307 310 311 313 312 313 313 313 314 314 315 315 315 315 316 316 316 316 316 316 312 314 314 314 314 314 314 314 314 314 315 316 309 307 310 308 307 305 308 311 311 310 311 310 310 310 310 309 308 305 304 301
302 304 306 308 308 310 311 312 313 313 313 314 314 314 314 314 314 314 314 314 314 315 315 308 313 313 313 312 313 312 313 313 314 315 314 314 313 312 308 310 312 312 311 311 311 311 311 310 309 307 304 303 302 301
299 299 300 301 304 306 307 308 310 311 311 311 311 312 313 313 313 313 313 313 313 314 313 312 310 310 310 310 312 312 311 312 313 314 313 314 313 312 304 313 311 311 311 311 310 310 309 308 304 302 301 301 300 300
299 299 299 299 299 299 301 303 305 308 310 310 311 313 313 313 313 312 313 313 311 312 312 306 306 308 309 309 310 310 311 312 313 313 310 311 310 310 308 311 312 311 311 310 309 306 305 302 300 299 298 299 300 300
299 299 299 300 300 301 302 301 301 301 304 308 311 311 312 309 309 310 310 310 311 312 309 305 305 307 307 308 308 307 307 304 306 304 306 308 303 309 308 309 310 309 308 307 306 303 302 300 297 297 298 299 300 299
298 298 299 300 300 300 302 302 303 303 304 306 308 309 308 307 308 308 307 307 309 308 306 302 304 304 306 306 304 304 302 301 303 303 304 303 307 308 308 308 308 306 306 304 302 299 297 296 295 295 295 296 297 297
298 298 299 300 300 301 301 302 302 305 306 306 306 305 304 304 305 305 304 303 302 301 301 300 302 304 304 303 302 302 301 300 302 297 303 297 302 303 304 305 305 304 303 301 298 296 295 295 293 294 294 295 295 296
297 298 299 299 300 300 301 301 302 303 304 304 304 303 302 303 302 301 300 299 300 299 300 300 302 303 303 302 301 299 299 299 301 298 298 302 296 301 302 301 301 300 300 299 298 298 297 295 294 293 294 295 295 295
297 297 299 299 299 299 301 301 302 302 302 303 302 301 301 300 302 300 301 301 299 300 300 302 301 302 301 301 299 297 299 299 298 299 300 295 300 301 301 301 300 300 299 298 298 297 297 295 293 294 295 295 294 294
297 296 298 299 299 299 300 300 300 300 300 299 299 297 298 295 295 295 297 298 300 300 302 301 300 298 298 296 298 298 294 293 297 299 294 294 299 299 299 298 296 297 297 297 297 297 296 294 293 294 295 295 295 294
297 297 298 299 299 298 299 299 300 299 298 298 297 294 292 297 298 298 299 299 300 301 301 299 298 298 294 291 289 291 291 298 298 293 290 298 297 295 295 295 296 296 295 295 295 296 295 294 293 294 294 294 295 295
297 297 299 299 299 298 298 299 299 299 296 298 297 292 297 297 296 297 298 298 299 299 297 298 294 290 291 288 289 289 290 292 290 290 297 296 295 295 295 295 295 294 293 294 295 295 294 294 294 295 295 294 295 293
297 298 298 298 298 298 298 298 298 297 295 293 295 296 297 297 296 295 296 297 298 296 291 294 290 292 291 286 288 291 289 288 297 295 295 295 295 294 293 293 293 294 294 294 293 293 294 294 294 294 294 294 293 292
298 297 297 297 297 296 296 295 294 294 292 293 295 295 296 297 296 296 296 297 298 297 296 290 294 289 287 287 287 288 295 294 294 295 295 295 294 293 293 294 294 293 293 293 293 294 294 294 294 294 294 293 293 292
295 295 296 296 295 295 294 294 294 293 293 294 294 295 294 294 295 295 295 296 297 296 296 295 285 284 285 291 292 293 293 295 294 293 292 292 293 294 294 294 293 293 293 294 294 294 294 294 293 293 293 293 293 292
294 294 294 295 294 293 292 293 293 293 294 294 294 294 295 294 294 294 294 295 295 295 295 294 288 293 293 293 293 294 293 293 292 292 293 294 294 294 293 293 293 293 293 293 293 293 293 293 292 293 293 294 293 292
293 294 293 293 293 293 292 291 292 292 292 293 293 294 293 293 293 293 293 293 293 292 293 293 293 293 292 292 292 291 291 292 293 294 294 294 293 293 293 293 293 293 293 292 292 292 292 292 292 292 292 292 292 292
293 292 293 292 293 292 292 292 291 291 291 292 292 293 293 293 293 294 294 292 293 292 292 292 291 291 291 291 292 292 293 293 293 294 294 294 294 294 293 293 293 292 292 292 292 291 291 291 291 291 291 292 292 291
292 292 292 292 292 291 291 292 292 293 291 292 292 291 291 292 292 293 294 293 293 292 292 292 292 292 292 292 293 293 293 293 293 294 294 293 293 293 292 292 292 291 292 292 291 291 291 291 292 292 292 292 291 290
291 292 291 291 290 289 291 292 292 293 293 291 283 282 284 293 293 293 284 293 292 292 292 292 292 292 292 292 292 292 293 294 293 292 292 293 293 293 292 292 291 290 291 290 290 291 291 291 291 291 291 291 291 291
291 291 291 290 289 290 290 283 289 286 283 280 280 280 288 293 283 279 282 292 292 292 292 292 292 292 292 292 293 292 292 292 292 292 292 292 293 292 291 291 290 290 290 290 291 291 291 290 290 290 290 290 290 289
288 291 290 290 290 286 285 281 280 283 277 280 282 292 292 284 282 285 287 292 291 291 292 293 293 293 293 293 293 292 292 292 292 292 292 292 291 290 289 289 288 289 290 290 290 290 291 290 290 290 290 290 290 288
286 286 291 291 292 291 290 291 290 286 279 282 280 283 281 287 284 287 292 292 292 292 293 293 293 292 292 292 292 292 292 292 292 292 292 291 290 289 288 288 289 289 289 289 290 290 290 290 290 290 290 290 289 288
292 291 288 291 292 292 287 283 279 282 282 291 289 282 285 285 286 291 291 292 292 292 292 292 292 292 292 292 292 292 292 292 292 292 291 290 290 289 288 288 288 288 288 289 290 290 289 290 290 290 290 290 289 289
290 291 292 291 292 292 292 288 288 292 292 292 285 281 288 291 291 291 291 291 292 291 292 292 292 292 293 293 293 293 292 291 289 289 288 288 288 288 288 288 288 288 288 288 289 289 289 289 289 289 289 289 289 289
290 291 292 290 285 285 292 292 291 291 291 291 291 291 291 291 291 291 292 292 292 292 292 292 292 292 292 291 291 290 289 288 288 287 288 287 287 287 286 286 287 287 287 287 287 287 287 287 288 288 289 289 288 288
291 291 291 291 287 290 291 291 291 291 291 291 291 291 291 291 291 292 292 292 292 292 292 291 290 290 290 289 289 288 287 287 286 286 286 286 286 286 285 286 286 286 286 286 286 286 286 286 286 286 286 286 286 286
291 291 291 284 290 291 291 291 291 291 291 291 291 291 291 291 291 291 289 289 288 288 288 287 287 287 286 286 286 285 285 285 284 285 285 285 285 285 285 285 285 285 285 285 285 285 285 285 285 285 284 284 284 283
291 290 290 290 290 290 290 290 290 290 290 290 290 290 290 290 290 283 282 283 283 283 284 285 285 284 284 283 283 283 283 283 283 283 283 284 284 284 284 284 284 284 284 284 284 284 284 283 283 283 283 283 282 282

GFSWCAN_850_thetae_009.txt.gz
Theta_e
311 313 312 312 312 311 312 312 313 313 314 314 315 315 315 315 315 315 316 316 316 316 316 317 317 317 316 316 306 314 312 311 305 306 301 303 297 303 307 307 306 307 306 304 305 308 308 310 311 310 310 310 310 309
309 312 312 312 312 312 312 313 313 313 314 314 315 315 316 316 317 317 316 317 317 316 316 317 317 317 317 317 317 315 314 313 314 305 304 297 304 304 306 312 307 311 307 306 306 307 308 310 310 310 310 310 309 310
307 309 313 312 313 313 312 312 313 313 313 313 314 315 315 316 316 317 317 317 317 317 317 317 316 316 317 316 317 317 316 316 315 314 308 304 309 305 311 310 309 310 310 306 308 309 310 310 311 311 310 310 310 306
307 308 311 313 312 313 313 313 313 313 313 313 314 314 314 315 315 316 317 317 316 316 315 315 314 314 315 314 314 314 316 316 316 315 313 304 307 309 308 311 310 311 311 309 310 311 311 311 310 310 309 310 307 305
303 307 308 312 314 314 313 312 312 313 313 313 313 314 314 314 314 315 315 316 315 316 312 314 314 314 314 314 314 314 314 314 315 314 308 307 309 308 307 305 307 311 310 310 312 311 310 310 310 309 306 303 302 300
303 306 306 308 311 313 313 312 312 312 313 313 314 314 314 315 314 314 315 314 314 315 315 307 314 314 314 314 314 314 314 313 314 313 313 313 314 312 307 310 312 312 312 312 311 311 311 310 307 302 302 300 299 300
300 302 304 305 306 308 311 313 313 312 313 313 313 314 314 314 314 314 313 313 312 314 314 312 310 310 311 312 312 312 312 312 312 313 312 313 312 312 304 312 312 312 311 311 311 310 309 306 304 300 298 299 299 299
299 299 299 301 303 305 305 308 310 312 313 313 313 313 313 313 313 313 313 313 312 314 313 306 305 309 308 308 309 309 310 310 312 312 310 309 310 311 309 310 311 310 309 309 308 307 307 304 299 297 296 295 296 299
299 299 300 300 300 300 301 304 306 307 309 310 311 311 311 311 310 310 312 311 312 311 311 306 306 308 307 307 308 307 307 304 306 305 305 307 304 309 308 308 308 307 307 307 304 303 300 297 296 294 293 293 294 295
299 299 300 300 301 302 302 301 300 302 305 309 310 309 307 307 308 308 308 308 309 307 307 304 305 304 308 307 305 305 304 302 304 303 304 302 305 306 305 303 304 305 305 304 302 298 296 295 297 296 295 293 294 295
299 299 300 300 300 300 302 302 303 304 306 307 307 305 304 305 306 307 305 305 303 303 302 301 303 303 304 304 303 303 301 300 302 296 302 300 300 300 301 302 302 302 300 297 297 298 298 296 296 295 293 292 294 294
298 298 300 300 301 301 302 303 305 304 305 305 305 304 304 304 304 303 301 300 300 302 300 300 301 303 303 303 302 299 299 298 299 297 299 299 297 299 299 300 300 299 298 298 298 297 297 297 296 295 293 293 294 294
297 298 299 299 300 301 301 302 303 303 304 304 304 303 302 301 302 303 302 301 299 299 300 300 301 301 301 301 299 297 298 297 296 297 297 295 299 299 298 296 295 295 297 297 296 294 295 296 296 295 294 293 294 294
297 298 299 299 299 300 301 301 302 302 301 300 300 299 299 298 299 296 296 296 299 300 301 301 299 299 298 296 297 297 292 293 298 299 294 292 297 294 293 293 294 294 294 293 293 293 294 294 295 294 294 294 294 295
296 297 299 299 299 300 300 300 301 300 298 298 296 292 294 296 297 298 299 299 300 301 301 299 298 297 294 291 293 292 294 295 297 292 289 296 294 294 295 295 294 293 292 293 293 293 293 292 292 293 293 293 294 294
297 297 298 299 299 299 299 299 299 299 297 297 296 291 296 296 296 297 298 298 299 300 299 298 291 287 289 287 289 292 290 290 290 289 295 294 295 295 293 292 292 293 293 292 292 292 293 293 293 293 293 294 293 293
297 299 298 298 298 298 298 298 299 298 297 294 295 295 296 296 296 296 297 297 298 297 294 293 290 291 289 284 287 290 288 288 296 293 295 294 293 292 292 293 293 293 292 292 292 292 293 293 293 293 294 294 293 293
296 297 299 297 298 298 298 297 296 295 293 293 294 295 296 296 295 295 295 296 297 297 296 291 293 286 284 286 285 287 295 294 293 294 293 292 291 292 293 293 293 293 292 293 293 293 293 293 293 293 293 292 292 293
297 297 297 297 297 297 295 295 295 293 292 293 293 295 295 295 295 296 295 295 296 297 296 295 283 284 285 290 292 293 293 293 293 293 291 291 293 293 293 293 293 293 293 292 293 292 292 292 291 291 292 292 292 292
297 296 296 296 296 295 294 293 294 293 293 293 294 294 295 294 294 294 294 295 295 296 295 293 289 293 293 294 293 293 293 293 292 291 292 293 293 293 293 293 293 293 292 292 292 292 292 291 291 291 291 291 291 291
295 294 295 295 295 293 292 292 292 292 292 293 293 293 293 293 293 293 292 292 293 294 293 294 294 294 294 293 293 292 291 291 292 292 293 293 293 293 293 293 293 292 292 291 291 292 291 290 291 290 291 291 291 291
294 294 293 293 293 292 292 291 291 291 291 292 292 293 293 293 293 293 293 291 292 292 292 292 291 291 291 291 292 292 292 292 292 292 293 293 293 293 292 292 292 292 292 291 291 291 290 290 290 291 291 291 291 291
293 293 292 292 292 291 291 291 292 292 290 292 292 291 291 291 292 292 292 292 292 292 292 292 292 292 292 292 292 292 292 292 292 292 293 293 292 292 292 292 293 292 291 290 289 289 290 290 291 291 291 291 291 291
292 292 292 291 290 289 291 291 292 292 292 290 282 281 283 291 291 292 283 292 292 292 292 292 292 292 291 291 291 292 292 292 292 293 292 291 291 292 292 291 292 291 289 289 288 289 290 290 290 290 290 290 290 290
292 291 290 289 289 289 288 285 286 287 285 278 279 279 287 291 282 278 282 292 292 291 291 291 291 292 292 293 293 293 292 292 292 292 291 292 292 292 291 291 291 290 289 289 289 289 289 289 290 290 290 290 290 290
284 290 289 289 289 284 283 282 285 282 275 278 279 290 289 282 280 283 286 291 291 291 291 291 293 293 292 292 292 292 292 292 292 292 292 292 292 292 291 291 290 290 288 288 288 288 288 289 290 290 290 290 290 289
283 287 290 290 290 290 287 287 287 284 277 281 279 281 278 283 281 286 291 291 291 291 292 293 292 292 292 292 291 291 291 292 292 292 292 292 292 292 290 289 288 288 288 288 287 287 288 288 289 289 289 290 290 290
291 289 288 290 291 291 286 281 276 281 281 289 286 281 284 283 285 291 291 291 291 291 291 291 291 291 291 292 292 292 292 292 292 292 292 292 290 289 288 288 288 288 287 287 286 286 287 288 288 288 289 289 289 289
290 291 290 290 291 291 291 288 288 291 292 291 284 279 288 291 291 291 291 291 291 291 291 291 291 292 292 291 291 291 291 291 290 290 289 288 288 287 287 287 287 286 287 287 287 287 287 287 287 287 288 288 288 288
290 290 291 290 288 288 292 292 292 292 291 291 291 291 291 290 291 291 291 291 291 291 291 291 291 291 290 290 290 290 290 289 288 287 287 287 286 286 286 285 285 286 286 286 286 286 286 286 286 286 287 287 287 287
291 290 290 289 287 291 291 291 290 290 290 290 290 290 290 290 290 290 290 290 290 290 290 289 289 289 289 289 288 287 287 287 286 286 285 285 285 285 285 285 285 285 285 285 285 285 285 285 285 285 285 285 285 285
291 290 290 281 289 290 290 290 290 290 289 289 289 289 289 289 290 287 285 284 284 284 284 284 284 285 285 285 284 284 284 284 284 284 284 284 284 284 284 284 284 284 284 284 284 284 284 284 284 283 283 283 283 283
290 290 290 289 289 289 287 286 287 287 287 287 287 287 288 288 282 278 278 278 279 280 281 282 282 283 282 282 282 282 282 282 282 282 282 282 283 283 283 283 283 282 282 282 282 282 282 282 281 281 281 281 281 281

GFSWCAN_850_thetae_012.txt.gz
Theta_e
310 313 312 312 312 312 310 311 311 311 312 312 313 314 315 315 315 316 316 316 316 315 315 316 316 315 315 314 306 313 311 310 305 307 303 304 296 303 306 306 305 306 303 301 303 308 308 307 309 310 310 309 309 309
308 310 313 311 312 312 311 311 311 312 313 313 314 315 315 315 315 315 315 316 316 315 315 316 317 317 317 316 316 314 313 312 313 304 302 297 300 301 304 309 306 307 307 309 309 306 307 308 309 311 310 310 309 308
306 307 310 313 312 312 312 311 312 312 313 314 314 315 315 315 316 316 316 317 317 317 317 317 317 316 316 316 317 317 314 315 314 313 307 300 308 301 310 308 304 308 310 307 308 309 309 312 312 310 309 309 308 306
304 306 308 312 312 311 312 312 312 313 313 313 314 314 315 315 315 316 316 317 317 316 314 315 314 315 315 315 315 316 317 316 315 314 311 302 307 309 307 310 310 310 309 309 308 311 311 311 310 310 309 307 305 302
304 306 307 307 312 312 311 312 312 312 313 313 313 313 314 314 314 315 315 316 316 316 311 314 313 313 313 314 314 314 315 315 316 313 308 306 309 308 306 305 307 312 310 310 311 311 311 311 310 308 305 303 301 298
303 304 306 307 309 313 312 313 313 312 312 312 313 313 314 314 314 314 314 313 313 314 314 308 312 313 313 313 313 314 314 314 314 314 311 312 313 311 306 308 311 312 311 311 311 311 310 309 308 306 300 298 299 298
301 301 303 305 307 310 313 312 312 312 312 312 313 313 313 314 313 313 313 313 313 313 313 311 310 311 311 311 312 313 314 313 312 313 311 312 311 311 304 312 311 310 310 310 309 308 308 306 303 299 298 296 295 294
299 299 301 302 304 305 308 311 312 312 312 312 313 313 313 314 314 314 313 313 312 314 312 306 306 309 308 308 309 308 310 310 311 311 309 308 308 309 308 308 307 306 306 306 306 306 303 298 297 296 295 295 295 294
299 299 299 299 301 302 303 306 310 312 312 312 313 313 313 312 312 312 313 313 312 312 311 306 306 308 307 308 308 307 307 304 305 304 305 306 303 308 304 301 303 304 304 304 303 300 297 297 297 296 295 295 293 292
299 299 300 300 300 299 300 302 305 308 309 310 309 310 307 308 308 310 308 308 308 308 307 305 306 304 307 307 305 306 303 302 303 302 303 302 304 302 300 302 302 303 302 301 298 297 297 297 296 296 295 294 294 293
299 299 299 300 300 302 301 300 302 303 307 307 307 305 304 305 306 305 303 304 303 303 303 303 304 304 305 304 303 304 302 300 301 296 301 301 301 299 299 299 299 298 298 297 297 296 296 296 296 295 296 296 295 294
299 299 299 300 300 302 303 303 303 305 306 306 306 302 303 304 304 303 302 300 301 301 300 300 302 303 303 304 304 299 300 298 300 296 298 298 295 299 299 297 295 294 296 296 295 295 293 292 293 295 295 296 296 295
298 299 299 300 301 302 303 304 304 304 304 304 304 304 302 301 303 303 302 301 300 299 300 300 300 301 301 302 299 298 297 295 295 294 296 294 298 295 293 293 293 293 293 292 291 292 292 293 293 293 292 292 292 293
298 299 298 299 301 301 302 303 303 304 302 302 302 300 298 299 299 298 298 295 299 299 300 301 299 299 298 297 296 295 293 292 297 293 292 290 295 294 294 294 294 293 292 292 292 293 292 292 292 292 292 293 293 293
297 299 299 299 300 301 301 302 303 302 299 298 297 295 297 295 297 299 299 300 300 301 300 299 297 297 294 292 294 293 295 295 295 291 286 295 294 295 294 293 292 291 292 293 293 292 292 292 292 292 292 293 293 293
297 299 299 299 300 300 301 301 301 299 298 297 295 291 295 296 296 297 298 299 300 299 299 298 291 290 291 290 292 293 293 291 288 288 294 294 294 294 292 291 291 293 293 292 292 292 292 292 292 292 292 292 292 292
297 298 299 299 300 299 299 299 299 299 297 294 294 294 295 294 296 297 297 297 298 299 294 294 291 291 289 287 289 288 285 285 295 293 294 293 292 291 291 291 292 292 293 293 292 292 292 292 292 292 292 291 291 291
297 298 298 299 298 298 298 298 297 296 294 293 293 293 295 295 295 295 295 297 297 297 295 292 292 285 283 285 284 286 295 296 293 293 293 292 291 291 292 293 293 293 293 293 293 292 291 291 291 291 290 290 290 291
297 297 297 298 298 298 297 296 296 294 292 292 293 294 295 295 295 295 295 296 296 297 296 295 283 285 286 289 292 293 292 292 293 293 292 291 291 292 292 292 293 293 293 292 292 291 291 291 291 290 290 290 290 290
297 297 297 297 297 296 294 294 294 293 292 293 293 294 294 294 294 294 295 295 295 296 296 292 289 294 293 294 294 294 294 293 293 291 291 291 292 292 292 293 293 293 292 292 292 291 291 291 291 289 290 290 291 291
296 296 296 297 295 293 292 292 292 292 293 293 293 293 293 293 293 293 293 293 293 294 293 294 294 294 294 294 294 293 291 291 291 291 292 292 292 292 292 293 292 292 292 292 292 291 290 288 290 289 290 290 290 290
294 295 295 295 293 292 292 291 291 291 291 292 292 293 293 292 292 292 292 290 290 292 292 292 291 291 291 291 291 292 292 292 292 292 292 292 292 292 293 292 291 291 292 292 291 290 289 288 289 289 290 290 290 291
293 293 293 292 292 291 291 291 291 291 289 291 291 290 290 291 291 291 290 290 291 291 291 291 291 291 292 292 292 291 291 291 291 291 292 292 292 293 292 291 291 291 291 291 290 289 289 289 289 289 289 290 290 290
293 293 292 291 290 288 291 291 291 292 291 289 281 281 281 290 289 288 285 291 291 291 291 291 291 291 291 291 291 292 292 292 292 292 292 292 292 292 291 292 292 291 291 291 289 289 288 288 288 288 289 289 290 290
292 290 290 288 288 288 283 289 285 288 288 276 280 279 286 289 281 280 281 291 291 291 291 291 291 291 291 292 292 292 291 291 291 291 291 291 291 291 292 292 292 292 291 290 288 287 287 287 287 287 288 289 288 289
282 288 289 289 288 283 280 284 286 284 273 276 282 287 286 280 280 283 285 291 291 291 291 291 291 292 292 292 292 291 291 291 291 291 291 292 292 292 292 292 292 291 289 287 287 287 287 286 286 286 288 288 288 288
283 288 289 289 289 288 285 285 285 283 275 280 278 279 276 282 280 286 291 291 291 291 291 291 292 292 291 291 291 291 291 292 292 292 292 292 292 292 291 290 289 288 287 287 287 286 285 285 286 286 286 287 287 288
290 289 286 288 289 289 284 281 275 279 280 288 285 281 283 282 284 291 291 291 291 291 291 291 291 291 291 291 291 291 291 291 291 291 290 291 290 289 288 288 287 287 286 286 286 286 286 286 286 286 286 286 287 287
290 290 289 287 289 290 290 287 287 291 291 290 284 279 288 291 291 291 291 291 290 290 290 290 290 291 290 291 290 290 290 290 290 290 289 288 287 287 287 286 286 285 285 285 286 286 285 285 285 285 285 285 286 286
289 289 290 289 285 284 291 291 291 292 291 291 291 290 290 290 290 290 290 290 290 289 289 289 289 288 288 288 289 289 289 289 288 287 287 286 286 285 285 285 285 285 285 285 285 285 285 285 284 284 284 284 284 284
290 289 290 289 289 291 291 291 290 290 289 289 288 288 288 288 288 286 285 285 285 285 285 285 285 286 285 285 286 286 285 286 286 285 285 284 284 284 284 284 284 284 284 284 284 284 284 283 283 283 283 283 283 283
290 289 289 279 289 290 289 289 288 287 286 286 286 286 287 287 286 281 278 279 280 281 281 281 282 283 282 283 283 283 282 282 282 282 282 282 282 282 283 283 282 282 282 282 282 282 282 282 282 281 281 281 281 281
288 288 288 288 289 288 286 285 286 286 286 286 286 286 285 282 275 275 275 276 276 276 278 279 280 280 280 281 281 281 281 280 280 281 281 281 281 281 281 281 281 281 281 280 280 280 280 280 279 279 279 279 279 279

GFSWCAN_850_thetae_015.txt.gz
Theta_e
311 313 312 312 312 312 311 310 310 310 310 311 311 312 314 315 315 316 315 315 315 314 314 316 315 314 313 313 310 312 312 311 306 309 309 308 307 308 308 307 307 309 310 308 307 309 311 307 308 312 311 309 309 309
307 310 312 314 312 312 311 310 310 311 311 311 312 313 314 315 315 315 315 315 315 315 315 316 316 316 316 315 315 314 312 311 312 306 303 302 307 302 306 314 306 312 310 311 310 312 308 307 309 309 309 309 308 308
305 307 309 312 312 311 312 311 310 311 312 312 313 314 314 315 315 315 315 315 315 315 316 316 316 316 316 316 316 316 313 314 313 313 306 303 309 305 310 307 308 308 307 309 309 311 310 311 311 309 309 307 307 306
304 305 307 310 313 312 312 312 311 311 312 313 314 314 314 315 315 316 316 316 316 316 314 314 314 314 316 316 316 316 317 315 314 312 309 303 308 308 308 311 311 311 309 309 309 311 310 310 310 310 308 305 303 300
303 305 307 308 311 312 311 311 311 311 312 312 313 314 314 314 315 315 315 316 316 316 312 314 314 313 313 313 314 314 314 316 315 312 307 307 308 307 305 305 307 311 311 311 313 311 310 310 309 306 304 299 298 297
302 304 305 307 307 310 311 311 312 311 312 312 313 313 314 314 314 314 314 314 315 315 315 306 311 312 312 312 313 313 313 315 315 314 311 312 313 311 307 309 310 312 311 311 311 310 308 306 304 299 299 297 295 295
301 300 302 305 306 308 311 311 311 312 312 312 312 313 313 313 314 313 312 312 313 313 313 311 310 311 311 311 312 312 313 313 313 313 311 312 312 311 304 310 310 309 308 307 307 307 306 303 300 297 295 295 296 296
299 299 301 303 305 307 309 312 312 312 312 312 312 312 313 313 313 313 312 312 312 312 312 306 306 308 308 309 309 309 310 310 310 310 308 308 308 308 308 307 303 303 304 305 304 304 300 297 296 297 297 296 295 294
299 299 299 299 303 303 306 310 312 312 312 312 312 312 313 312 312 313 312 312 312 312 312 307 307 309 308 307 307 306 307 305 305 304 305 306 304 308 303 301 302 304 303 299 298 297 297 297 296 295 295 295 295 295
299 299 299 300 299 301 302 306 309 311 312 312 312 310 310 310 310 312 311 311 312 309 308 305 305 306 307 306 304 306 304 303 305 302 302 303 304 300 300 300 299 300 299 298 297 296 295 295 293 292 293 293 295 296
299 299 299 300 300 300 301 302 306 308 309 308 305 303 304 305 306 306 304 305 303 302 302 303 304 304 305 304 303 304 303 301 303 300 303 303 303 299 297 298 298 297 296 296 295 294 293 292 292 292 292 292 293 293
299 299 299 300 300 301 300 300 301 304 304 302 303 301 301 301 301 301 301 300 301 303 300 301 302 303 303 304 303 300 302 299 302 296 300 302 298 298 298 296 294 294 294 292 292 291 291 291 292 292 291 291 292 292
299 299 300 300 301 303 302 301 302 303 303 302 303 300 300 300 303 304 303 302 302 299 300 300 300 302 302 303 300 299 299 298 294 297 299 297 298 296 293 293 293 293 293 291 291 291 292 292 291 291 291 292 292 292
298 299 300 300 301 303 303 303 303 303 303 302 302 301 299 301 300 299 297 297 298 300 300 301 299 299 298 298 296 298 295 293 298 297 297 294 295 294 294 294 293 292 291 291 291 292 292 292 292 291 291 292 292 292
298 299 299 299 301 301 302 303 303 302 298 298 298 298 297 296 297 298 299 299 299 300 300 299 297 297 294 295 295 294 296 297 296 296 293 295 294 294 294 293 291 291 291 291 292 292 292 292 292 291 291 291 291 291
297 299 298 298 300 301 301 302 302 301 297 297 295 293 294 296 295 297 299 299 299 300 299 298 293 295 295 293 294 295 295 294 294 290 295 294 294 293 292 291 290 291 291 292 292 292 292 292 291 291 291 291 291 290
297 299 298 298 299 300 301 301 300 299 297 295 293 294 295 294 296 297 297 299 299 299 295 293 294 295 290 292 293 292 291 291 294 292 292 292 293 292 291 290 291 291 292 293 292 292 292 292 291 291 291 291 290 290
298 298 298 299 299 300 299 299 298 297 294 293 293 294 295 296 296 296 297 298 298 298 295 293 291 289 290 291 291 289 293 295 293 292 293 293 292 291 291 291 291 292 292 292 293 292 292 291 291 290 290 290 290 290
298 297 298 299 299 298 297 297 296 293 292 292 293 294 295 295 295 295 295 296 297 296 296 294 287 290 290 289 292 294 293 294 293 293 293 292 291 291 291 291 292 292 292 293 292 292 291 291 291 290 290 289 289 290
297 298 298 298 298 296 295 294 294 293 292 292 293 294 294 294 294 295 295 295 296 296 296 294 291 294 294 294 294 294 294 294 292 291 291 291 291 291 292 292 292 292 292 292 291 291 291 291 291 289 288 289 289 289
297 296 297 297 296 294 293 293 293 292 292 293 293 293 293 293 293 293 293 293 294 294 292 294 294 294 295 294 294 293 292 291 291 291 291 291 291 291 291 291 292 292 292 291 291 291 291 290 290 289 289 288 289 289
294 296 296 296 293 292 291 291 292 291 292 292 292 292 292 291 290 290 290 290 290 292 293 293 292 291 291 291 291 291 291 291 291 291 291 291 291 291 291 291 292 292 291 291 291 291 291 290 289 289 288 288 287 289
295 295 294 293 292 292 290 291 291 290 288 290 290 289 289 290 289 289 289 289 290 291 291 291 291 291 291 291 291 291 291 291 291 291 291 291 291 291 292 292 292 291 291 292 291 291 290 289 288 287 287 288 287 288
294 293 292 291 290 288 291 291 291 291 290 287 281 285 283 288 287 286 287 288 291 291 291 291 291 291 291 291 291 291 292 291 291 291 291 291 291 291 291 291 291 291 291 291 291 291 289 288 287 287 286 286 286 288
293 290 290 287 288 287 278 288 287 289 283 277 284 282 284 287 281 285 286 289 291 291 291 291 290 290 291 291 291 292 291 291 291 290 291 290 291 291 291 291 291 291 291 291 291 289 287 287 286 285 285 285 286 286
285 288 287 287 287 283 279 285 286 286 280 283 283 284 284 280 281 285 285 291 291 290 291 290 291 291 291 291 292 292 291 290 291 291 290 291 291 291 291 292 292 291 290 289 288 287 286 286 285 285 285 285 286 286
286 288 288 288 288 287 282 282 283 281 280 281 278 277 276 282 281 286 291 291 291 290 290 290 290 290 290 291 291 291 291 290 290 291 291 291 291 290 290 289 289 288 287 286 286 285 284 284 284 284 285 285 285 285
289 288 285 287 288 288 282 279 275 280 279 287 284 281 283 283 285 291 291 290 290 290 290 290 290 290 290 290 290 290 290 290 290 289 289 289 289 289 288 288 287 287 286 285 284 284 284 284 284 284 285 285 284 284
290 289 289 286 284 286 288 286 286 290 290 289 284 279 288 290 290 289 290 290 289 289 289 289 289 289 289 289 289 288 288 288 289 289 288 288 287 287 286 286 285 285 285 285 284 284 284 284 284 284 284 283 283 283
288 288 289 286 282 282 291 291 291 291 291 290 290 290 290 289 287 286 285 285 286 285 284 283 282 283 283 284 285 285 285 285 286 286 286 285 285 284 284 284 284 284 284 284 284 284 284 284 283 283 283 283 283 282
289 287 289 288 288 291 291 291 291 290 290 289 288 287 286 286 284 282 281 280 279 279 280 281 281 281 281 281 282 282 282 282 282 282 282 282 282 282 282 282 282 282 282 282 282 282 282 281 281 281 281 281 281 281
288 287 288 282 288 289 289 289 289 288 287 286 285 285 285 285 281 277 276 276 277 278 277 277 278 278 277 277 278 278 279 279 280 280 280 280 280 280 281 281 281 281 281 281 280 280 280 280 279 279 279 279 279 278
284 284 284 286 287 288 286 285 285 285 285 285 284 284 282 279 274 273 273 274 274 274 275 275 275 275 276 276 277 277 277 277 277 278 278 278 279 279 279 279 279 279 279 279 279 279 278 278 278 278 278 277 277 277

GFSWCAN_850_thetae_021.txt.gz
Theta_e
312 312 313 312 313 312 311 310 308 308 308 308 309 310 311 314 316 316 315 314 318 320 318 319 319 320 320 320 324 321 320 320 321 319 319 321 319 319 317 315 316 316 318 316 316 315 316 314 313 316 315 314 313 311
313 312 312 312 312 312 312 310 309 308 308 308 309 310 311 313 315 315 318 315 313 319 321 317 316 318 318 319 319 319 319 320 319 322 319 317 314 315 318 318 315 316 316 317 317 318 315 314 313 314 314 314 311 308
312 312 311 311 312 312 311 311 310 310 309 309 310 311 312 313 314 315 315 315 315 315 318 319 319 314 315 315 318 320 319 319 319 320 318 316 313 317 316 318 320 316 315 317 316 315 314 314 314 313 311 309 308 306
308 310 312 311 312 312 312 311 311 310 310 310 311 312 312 313 314 314 316 315 317 316 317 320 316 317 315 315 315 318 319 316 318 317 314 310 316 317 319 318 318 317 315 316 317 315 314 314 311 310 308 307 306 304
306 307 309 312 312 311 311 311 311 311 311 311 311 312 313 314 314 314 315 315 315 320 318 319 315 315 316 316 316 317 317 318 318 313 310 314 318 318 315 313 317 314 316 318 317 314 312 312 309 308 307 305 303 301
304 306 307 308 310 312 312 312 311 311 311 311 312 312 313 313 314 316 318 315 316 315 315 321 316 313 314 315 317 318 318 318 318 318 314 316 316 315 315 315 313 313 314 313 314 312 311 309 307 306 305 302 300 300
300 303 304 306 307 309 310 311 311 311 311 311 311 313 313 314 314 317 316 316 315 315 314 314 316 311 311 314 314 316 315 315 316 316 314 315 315 314 311 314 313 313 313 311 310 309 307 306 306 303 300 300 299 298
299 299 300 303 304 306 308 310 313 312 311 311 311 311 312 312 314 314 312 312 313 315 313 312 312 310 310 311 311 310 312 311 312 313 310 312 313 312 313 312 312 311 308 305 306 306 306 304 301 301 299 297 296 296
299 299 299 299 301 304 305 307 309 312 311 311 311 312 312 313 312 313 312 312 312 313 314 309 311 311 309 307 307 308 309 311 308 307 307 309 308 311 312 312 310 307 306 305 304 303 302 300 299 297 296 296 296 295
300 299 299 299 299 299 302 305 307 310 311 311 311 312 313 312 313 311 312 312 312 312 311 309 312 310 310 306 306 307 306 312 310 308 305 303 306 307 307 307 307 307 304 303 302 302 300 297 296 296 296 295 294 293
300 299 299 300 300 300 302 305 307 309 310 308 309 309 307 309 312 312 311 309 308 305 305 306 309 308 308 310 308 306 306 306 310 308 309 309 309 308 305 304 303 302 301 300 299 297 296 296 295 295 295 294 294 293
299 299 299 300 300 300 303 304 306 307 306 306 306 304 305 305 304 307 305 301 303 308 301 302 302 304 305 306 303 301 306 306 310 304 305 306 308 306 303 302 301 300 299 297 296 295 295 295 295 295 294 293 293 292
298 299 299 300 301 300 301 302 303 304 304 303 303 301 301 299 303 306 307 306 306 300 300 301 301 302 302 303 300 303 306 309 303 303 306 307 305 303 302 301 300 299 296 293 294 294 294 294 292 291 292 291 292 291
296 298 299 300 301 301 300 302 302 301 302 300 300 302 302 303 304 304 306 306 301 301 301 301 300 301 300 301 301 308 303 303 305 305 306 306 303 302 302 299 298 297 294 292 291 291 291 291 291 292 292 292 292 291
296 299 299 299 300 301 301 301 301 301 300 300 300 303 302 297 298 298 299 299 299 300 301 302 301 303 301 302 303 302 302 304 304 306 306 303 303 301 298 297 296 294 293 292 292 292 291 291 292 292 292 291 291 291
295 296 298 299 300 300 301 301 301 301 297 298 298 299 298 299 299 299 299 299 300 300 301 301 301 304 303 304 302 304 305 305 305 303 302 300 298 297 296 296 293 292 291 291 290 291 291 291 292 292 292 291 291 291
296 297 298 299 299 300 300 300 299 299 297 297 298 297 298 299 300 298 299 299 300 300 302 301 303 303 298 302 302 302 303 303 301 301 299 297 296 295 294 294 293 292 291 291 291 292 291 292 292 292 291 292 292 291
296 297 298 298 299 299 300 300 298 297 296 296 299 296 296 296 297 298 298 298 299 299 298 301 297 299 301 302 302 302 300 299 298 297 295 295 295 295 295 294 293 293 292 292 291 291 291 292 293 293 293 293 292 292
296 296 298 298 299 299 298 298 297 297 296 295 293 294 295 295 296 297 297 298 298 297 296 297 300 299 300 298 299 300 298 298 297 296 295 295 295 294 291 291 291 291 292 292 292 293 293 293 293 293 293 293 292 291
297 297 298 299 298 298 296 296 294 296 298 296 295 296 295 294 294 295 296 297 297 297 298 298 299 299 298 298 296 297 296 296 295 295 295 294 294 293 293 293 293 293 292 293 293 293 293 293 293 293 293 292 291 290
296 296 297 298 297 295 295 294 294 295 294 296 295 296 293 292 293 294 294 294 296 297 297 297 298 298 297 295 294 294 294 293 293 293 294 293 293 293 293 293 293 293 293 292 291 292 292 293 293 293 292 291 291 289
296 296 296 297 295 293 292 293 295 293 295 295 294 295 294 294 293 292 292 293 295 296 296 296 296 296 295 294 293 291 291 291 291 292 292 292 293 293 293 293 293 292 291 291 292 292 292 292 292 292 291 291 289 288
295 295 295 295 293 293 291 292 293 293 295 294 294 295 295 294 292 289 292 293 294 295 295 294 294 294 292 293 291 290 290 290 291 292 293 293 293 293 293 293 293 292 292 292 292 292 292 292 291 291 290 289 288 287
295 294 292 292 293 292 291 292 292 293 293 294 295 295 294 293 289 291 294 294 294 294 292 292 292 293 293 291 292 292 292 292 292 293 293 293 293 293 293 292 292 292 291 291 291 291 290 290 290 289 288 287 286 286
294 291 291 291 290 292 293 293 292 294 294 293 294 294 292 290 293 293 294 294 295 293 293 293 292 292 292 293 292 292 292 292 292 292 292 292 292 292 292 292 291 290 290 289 289 289 289 288 288 287 286 286 286 286
292 289 292 292 290 293 293 293 293 293 293 293 293 291 290 293 294 294 294 293 292 289 289 289 290 291 292 291 291 291 290 289 289 290 290 291 291 291 291 290 289 290 289 288 288 287 287 286 286 285 285 285 285 285
292 292 290 288 290 290 290 290 290 292 292 293 293 291 293 293 294 294 290 287 287 287 287 287 288 287 286 286 285 286 286 286 286 286 287 287 288 288 288 287 288 288 287 287 286 286 286 285 285 285 284 284 284 284
291 291 291 290 290 291 291 292 292 293 293 292 292 293 293 293 294 287 283 284 285 285 284 285 284 284 283 283 282 282 283 283 284 284 284 285 287 287 286 284 283 284 284 284 284 284 284 284 284 283 283 283 283 282
291 290 290 289 290 291 292 293 293 292 292 292 294 294 293 285 282 281 283 284 284 283 283 283 282 282 280 279 279 279 279 280 280 280 279 280 279 281 281 281 281 282 282 282 283 282 282 283 283 283 282 282 282 281
289 289 290 289 290 293 293 292 293 290 290 291 291 289 287 282 281 282 280 280 280 280 280 279 278 277 277 277 277 277 277 277 277 277 276 276 276 278 278 279 279 280 280 281 281 281 281 281 280 279 280 280 280 279
287 289 291 291 292 292 291 290 290 290 290 290 290 290 286 280 277 279 279 278 278 278 278 277 276 275 275 275 275 275 275 275 276 276 276 276 277 277 277 277 278 278 278 279 279 279 279 279 278 278 279 279 278 278
288 290 290 291 292 289 289 288 289 289 290 289 289 285 282 281 280 274 276 276 275 276 276 276 275 275 276 274 274 273 274 273 274 274 275 275 275 275 276 276 276 276 277 277 277 277 277 277 277 277 276 277 277 276
286 286 286 287 289 290 287 286 287 287 287 287 285 282 280 281 279 274 275 276 276 276 276 275 275 275 274 274 273 272 272 272 273 273 273 273 273 273 274 274 274 275 275 275 275 275 275 275 275 275 275 275 275 274

GFSWCAN_850_thetae_024.txt.gz
Theta_e
313 312 312 312 312 311 310 309 308 308 308 308 308 309 311 315 316 316 315 314 321 323 322 322 322 323 322 322 327 321 322 322 325 316 320 324 320 322 320 318 316 315 316 315 315 317 316 315 314 315 316 315 313 311
312 312 312 312 312 312 311 310 308 308 308 308 308 309 311 313 315 316 318 314 314 322 322 321 320 321 321 321 322 321 320 322 322 322 321 321 314 314 317 322 315 319 320 321 318 318 315 315 315 314 314 312 310 309
313 312 312 312 312 312 312 311 309 308 308 308 308 309 310 312 314 317 319 314 316 317 320 319 320 317 318 319 321 321 321 319 319 322 318 314 311 318 315 320 318 316 315 321 319 316 315 315 314 312 310 309 308 308
313 312 312 312 312 311 311 311 310 309 309 309 309 310 310 312 313 315 320 315 320 317 318 321 319 317 315 314 317 321 320 319 321 319 312 309 311 317 320 319 321 319 316 317 318 316 315 314 313 311 310 308 307 305
308 312 313 312 311 311 311 311 311 310 310 310 310 310 311 312 313 314 314 315 316 322 316 321 318 318 315 316 318 318 319 319 319 315 308 313 318 320 317 316 319 315 315 318 318 316 315 314 311 310 308 307 305 302
306 308 311 312 312 311 311 311 311 311 311 311 311 311 312 312 313 314 319 314 315 319 314 316 318 316 315 316 319 320 319 319 319 319 314 317 317 318 314 314 313 313 314 314 315 313 313 311 309 308 306 304 301 301
303 305 307 308 311 312 311 311 312 311 311 311 312 312 312 313 314 318 317 318 315 316 314 313 318 313 313 317 318 318 318 318 318 317 316 315 317 316 312 314 312 312 313 313 312 310 309 308 307 306 302 302 300 298
299 300 303 305 307 309 310 311 311 311 310 311 311 312 312 313 314 315 314 312 314 316 315 314 313 312 312 314 313 313 313 313 313 314 312 312 314 313 314 313 313 313 313 310 310 310 309 307 304 302 301 298 297 297
299 299 299 300 302 304 306 308 310 311 311 310 311 311 311 312 312 314 313 312 314 316 316 309 311 311 311 309 310 309 311 310 310 309 308 311 309 312 312 313 313 312 310 308 307 305 304 303 301 299 298 297 297 296
299 299 299 299 299 299 303 306 308 311 312 311 311 312 313 313 311 311 312 312 313 313 312 310 311 313 310 307 306 307 307 311 310 308 306 305 307 309 311 311 312 310 308 306 305 304 302 300 298 297 297 297 296 295
300 299 299 299 300 300 303 305 306 308 311 310 310 310 309 311 312 312 311 310 310 309 309 309 311 309 310 308 308 308 307 307 311 309 310 310 309 309 309 308 308 308 305 304 302 300 298 297 297 296 296 296 294 293
299 299 299 300 300 302 304 306 307 308 308 308 308 307 307 307 305 310 305 303 304 310 303 303 305 308 306 308 307 304 306 305 310 306 307 308 308 309 307 306 304 303 302 299 297 297 296 296 296 295 294 292 291 291
298 299 299 300 300 301 302 303 304 305 305 305 305 304 303 300 304 306 307 306 305 301 301 301 301 303 304 305 301 301 305 307 304 306 306 308 307 306 305 303 302 301 298 296 295 295 295 293 292 291 291 291 291 291
296 299 299 299 301 300 301 302 302 303 303 302 300 302 302 304 303 303 303 302 300 302 301 301 300 302 301 301 300 306 303 305 306 306 306 308 305 303 303 302 301 298 296 294 293 292 292 291 290 290 291 291 291 291
295 299 299 299 300 301 301 302 301 301 301 300 301 303 302 298 298 299 299 299 300 301 301 301 301 302 301 302 301 303 303 306 306 307 304 304 303 303 300 299 297 296 295 294 293 292 291 290 291 291 291 291 292 291
295 297 298 299 299 301 301 302 301 301 298 300 299 300 298 300 299 299 299 299 300 300 300 301 301 303 303 303 304 305 306 306 306 304 303 301 299 298 298 297 296 294 293 293 292 291 291 291 291 291 291 291 292 291
294 300 298 299 299 300 300 300 301 300 298 299 298 299 299 300 300 299 299 299 300 300 301 301 304 301 300 303 303 303 305 303 302 301 300 299 297 296 295 294 294 293 292 292 292 292 292 292 291 291 292 292 292 293
296 297 297 299 299 299 299 299 299 298 298 299 300 298 298 298 299 298 298 299 300 299 300 301 299 301 302 303 304 303 301 300 299 298 297 296 295 295 295 294 293 292 291 291 291 291 292 292 293 293 293 293 293 293
297 298 297 298 298 299 299 298 298 299 298 297 296 296 296 296 296 297 297 298 299 297 298 298 300 300 302 299 300 299 298 298 298 297 296 295 295 295 295 293 292 291 292 293 292 292 292 292 292 292 292 293 293 293
295 296 297 298 298 299 298 297 297 298 299 298 297 297 296 295 295 296 296 297 297 297 298 299 300 300 300 298 297 298 297 296 296 296 296 295 294 294 294 294 293 293 292 292 291 292 292 293 293 292 292 293 293 293
295 295 296 297 298 297 296 296 297 297 296 298 297 297 293 293 294 294 295 296 297 298 298 298 298 299 298 297 295 294 294 294 294 294 294 294 294 293 293 292 292 293 293 293 293 292 292 292 292 292 292 293 293 292
295 296 296 296 295 294 294 295 296 295 297 296 296 297 294 294 294 293 293 295 296 297 297 297 297 297 297 296 295 294 293 291 291 291 292 293 293 293 294 294 294 293 292 292 292 291 292 292 291 291 291 291 291 290
295 295 295 295 294 294 292 294 295 296 296 295 296 295 295 294 293 291 294 295 296 296 296 296 296 295 294 294 293 291 291 292 293 293 293 293 293 294 293 293 293 293 292 292 292 291 291 291 290 290 290 290 289 288
294 294 294 293 294 293 293 294 294 295 295 296 296 296 295 294 291 293 295 296 296 295 294 294 294 294 294 293 292 293 293 292 293 293 292 292 292 292 292 292 292 292 291 292 291 290 290 289 288 288 288 288 287 287
294 292 292 292 292 293 294 294 294 295 295 295 295 295 293 291 294 295 295 296 294 292 292 292 293 293 293 293 293 292 291 291 291 290 288 289 289 290 289 289 289 289 289 289 289 290 289 288 288 287 287 286 286 286
294 291 293 294 293 295 295 295 295 295 295 295 294 293 292 294 294 295 295 292 289 288 287 288 289 290 291 290 288 288 288 287 286 285 285 285 285 285 285 286 287 287 287 288 287 288 288 287 287 286 286 286 286 285
294 293 291 290 292 292 293 293 293 293 294 294 294 293 293 294 294 293 288 287 287 285 285 285 286 285 285 284 284 283 283 283 283 283 283 283 284 284 284 283 282 282 283 283 284 284 284 285 285 285 285 285 284 284
292 292 292 292 292 293 293 293 293 294 294 294 293 293 294 294 293 286 284 282 284 283 283 283 283 283 282 282 281 281 281 282 281 281 282 283 281 281 281 281 280 281 281 281 282 282 282 282 282 282 283 283 283 282
291 291 291 290 292 293 293 294 294 293 293 293 294 294 292 285 283 282 281 283 282 281 281 281 280 281 279 279 278 278 278 278 278 278 278 277 277 278 278 278 278 278 279 279 280 280 280 280 280 280 281 280 280 279
290 290 292 291 292 294 292 293 293 292 292 293 293 289 285 280 280 281 279 279 279 279 279 278 278 277 276 276 276 276 276 276 276 275 274 274 275 275 276 276 276 277 277 277 278 278 278 279 279 279 279 279 278 277
289 290 291 292 293 291 290 290 290 290 290 291 291 291 284 280 279 279 278 276 276 277 277 276 275 275 275 275 274 274 274 274 273 272 273 273 274 274 274 274 274 274 275 275 275 276 275 276 276 277 276 276 276 276
290 290 291 292 292 289 289 290 290 290 290 289 289 286 283 283 281 276 276 275 274 275 276 276 276 275 275 274 274 273 272 272 271 271 271 270 271 272 272 272 273 273 273 274 274 273 273 274 274 274 274 274 275 274
288 288 288 289 290 290 289 288 289 289 289 289 287 284 281 282 280 275 275 276 275 276 275 275 275 274 273 273 272 271 272 272 272 270 269 269 270 271 271 271 271 271 272 272 272 271 271 272 273 273 273 273 273 272

GFSWCAN_850_thetae_027.txt.gz
Theta_e
309 309 309 310 309 309 309 308 308 308 308 308 309 310 313 315 315 316 314 321 321 323 321 322 322 323 323 322 314 321 315 317 312 313 309 308 309 310 313 314 311 307 307 308 310 312 309 313 314 311 311 314 312 310
310 310 310 310 310 310 309 309 308 308 308 308 308 309 311 315 316 317 314 316 318 321 321 321 322 322 322 323 322 319 317 321 319 311 306 309 310 311 309 310 313 312 310 309 309 308 311 314 314 314 314 312 310 310
312 312 311 311 312 311 310 309 308 308 308 308 308 309 310 313 316 317 315 315 315 315 318 318 318 319 319 322 322 320 321 320 320 320 314 312 309 308 306 309 314 312 314 309 312 314 315 315 314 314 312 311 309 307
312 311 311 312 311 312 311 310 309 308 308 308 308 309 310 311 313 314 315 318 317 316 317 321 319 316 316 319 321 320 319 320 320 319 311 309 306 314 307 309 308 312 314 314 310 314 314 313 313 312 310 308 306 306
312 312 312 311 311 311 311 311 310 309 309 309 309 309 310 311 312 313 315 315 318 318 314 320 318 319 316 315 316 318 319 319 320 315 306 306 311 311 312 307 307 316 312 309 307 314 314 313 312 311 309 306 305 303
312 313 313 312 311 311 310 311 310 310 310 309 310 310 310 311 312 313 314 314 316 319 315 308 317 316 315 316 319 319 319 319 318 317 312 316 318 314 310 310 313 315 314 314 314 314 314 313 310 309 307 305 302 301
306 308 311 311 311 311 311 311 311 311 310 311 311 311 311 311 313 316 316 317 315 316 314 311 313 313 315 318 319 319 319 319 319 317 316 315 316 316 306 310 311 312 313 313 313 313 310 309 307 306 304 302 299 297
302 305 307 310 311 311 310 311 311 311 311 311 311 311 312 312 314 315 315 312 315 315 314 307 309 312 314 315 314 314 315 315 314 314 313 313 314 311 310 311 313 313 313 312 311 311 310 308 306 304 301 298 297 297
299 299 302 305 307 308 311 311 312 312 311 310 311 310 311 311 313 313 313 312 314 315 313 309 304 304 312 310 311 311 312 307 310 309 310 311 305 310 310 312 312 312 312 310 309 308 306 305 302 298 297 297 297 296
299 299 299 299 300 303 306 309 310 311 311 310 310 311 311 311 312 312 313 312 312 312 312 308 310 307 309 309 307 308 308 305 308 306 307 303 306 309 310 311 311 312 310 308 305 304 302 300 298 297 297 296 296 296
299 299 300 300 300 302 304 305 308 311 311 310 311 311 312 311 311 311 310 309 310 308 309 310 310 308 308 305 304 307 304 304 308 304 307 307 306 306 308 309 309 309 306 305 304 302 299 297 297 296 296 296 295 291
299 299 300 300 302 305 306 306 306 308 309 310 310 309 309 310 308 307 305 304 305 307 304 305 306 308 308 309 306 304 305 304 307 306 306 306 303 308 307 306 304 304 302 299 298 298 296 296 296 295 293 291 291 291
299 299 300 300 302 303 303 305 306 307 307 307 307 306 304 301 304 306 307 304 304 301 302 303 302 305 305 306 303 301 305 306 304 305 304 301 307 306 304 302 301 299 297 297 296 296 295 294 292 291 290 290 291 290
298 299 299 300 301 302 302 304 305 305 305 304 301 301 302 302 301 300 301 301 300 301 301 302 300 301 301 302 300 304 301 302 305 303 300 303 304 303 303 302 301 298 298 297 295 294 293 292 291 290 290 290 290 291
297 299 299 300 300 301 302 301 301 301 301 300 301 302 300 298 298 298 298 299 300 301 301 301 300 300 300 301 300 300 302 304 304 305 301 302 301 301 301 300 298 297 296 295 293 292 291 291 291 291 291 291 291 291
295 298 299 299 300 300 301 300 301 299 299 299 299 298 298 299 298 299 299 299 300 300 300 301 300 302 301 301 302 304 304 304 302 300 300 299 299 300 300 298 296 294 294 293 291 291 291 291 291 291 291 291 291 292
297 297 298 299 299 299 299 300 301 299 297 299 298 299 299 299 298 299 299 299 300 301 300 301 302 300 299 301 302 301 302 300 301 300 300 300 299 297 296 294 294 294 293 292 291 291 291 291 291 291 291 291 291 292
297 296 297 298 298 299 299 299 299 298 298 298 299 298 298 298 298 297 298 299 299 300 300 299 299 299 299 300 300 300 300 299 300 299 298 297 296 295 295 294 294 293 291 291 291 291 291 291 291 291 291 291 292 293
295 296 296 297 298 298 299 299 298 298 297 297 297 296 296 296 295 296 296 297 299 299 298 298 297 297 297 299 301 299 299 298 298 297 296 296 296 296 295 294 294 293 292 291 291 291 291 291 291 291 291 292 293 293
295 296 296 298 298 297 298 297 298 298 298 297 296 296 295 294 294 295 296 297 298 298 298 294 296 300 299 298 298 297 297 296 296 296 295 294 294 294 294 293 293 293 292 292 292 292 292 292 291 290 291 291 291 292
294 294 294 296 297 297 297 296 297 297 297 297 296 296 293 293 294 294 295 296 297 298 298 298 298 298 298 298 297 295 294 294 294 294 294 292 292 292 292 292 293 294 294 294 293 292 292 292 291 291 290 291 290 290
294 294 294 295 296 295 295 296 296 296 297 296 297 295 293 293 293 293 293 294 295 297 297 297 297 297 297 296 295 294 293 292 291 292 293 293 293 293 293 293 293 293 292 292 292 292 292 292 292 291 290 290 288 289
293 294 294 295 294 293 293 295 295 296 295 296 296 295 294 294 293 292 293 294 295 296 296 296 296 296 294 295 294 292 292 293 293 292 293 293 292 291 289 290 292 292 292 292 291 290 290 291 290 289 289 288 288 288
293 294 294 294 294 293 293 294 295 295 295 294 295 293 294 293 291 292 289 295 294 294 294 293 293 294 293 292 293 292 292 292 292 292 292 291 290 287 286 286 287 287 286 287 287 287 287 287 287 289 288 287 287 287
294 293 292 293 293 293 293 293 294 294 291 293 291 289 292 291 287 287 288 294 292 293 292 293 292 293 292 291 290 291 291 291 289 288 286 285 284 285 285 284 284 285 284 284 284 284 284 285 285 285 286 286 286 286
293 292 292 294 293 294 294 293 292 290 289 291 292 292 292 291 288 287 291 289 289 289 287 289 289 290 290 290 289 289 288 286 285 284 284 283 282 282 282 282 281 282 281 281 281 281 282 282 283 283 284 285 285 285
293 292 291 291 293 293 293 293 293 293 292 291 289 291 288 286 284 289 287 287 287 285 284 284 287 286 286 285 284 283 283 283 282 282 281 280 281 281 280 279 278 278 278 279 279 279 279 279 280 280 281 282 282 283
292 292 289 291 292 293 293 293 292 293 291 294 293 289 287 286 288 286 285 284 283 282 283 282 284 283 282 281 280 280 281 281 281 280 281 280 280 279 278 278 277 277 277 277 277 278 278 278 278 278 279 280 280 280
291 291 291 291 292 293 293 293 294 293 293 294 291 288 287 284 283 282 281 281 280 281 281 281 280 280 280 279 279 279 280 280 279 278 278 277 277 277 276 276 275 275 275 276 276 276 276 276 276 277 278 279 279 279
290 291 292 291 289 291 291 291 292 291 293 293 292 288 284 280 279 279 279 279 280 280 278 278 277 279 279 278 278 276 275 276 275 274 274 273 273 273 273 273 273 273 273 273 274 274 275 275 275 276 276 277 277 276
289 291 291 292 292 290 289 289 290 290 290 290 290 289 284 281 279 279 278 277 276 277 277 278 277 277 276 276 276 275 274 274 273 273 271 271 271 271 271 271 271 271 272 272 272 272 272 272 272 273 273 274 274 274
289 290 291 291 291 289 289 288 289 289 289 288 288 286 283 281 278 277 276 276 276 277 277 277 276 275 275 274 273 272 272 273 272 272 271 271 271 271 271 271 271 271 270 270 270 270 270 270 270 271 271 271 271 271
288 288 288 289 290 290 288 287 289 289 289 289 285 284 283 282 277 276 276 276 276 275 274 274 274 274 274 274 273 273 272 272 272 272 271 270 270 270 271 271 270 270 269 269 269 269 269 269 269 269 269 270 270 270

GFSWCAN_850_thetae_030.txt.gz
Theta_e
313 309 309 310 309 309 309 309 309 308 309 309 310 312 313 314 315 315 317 319 322 321 322 322 323 322 321 319 312 318 314 315 308 305 303 310 302 307 310 311 309 308 307 305 302 300 308 309 312 310 309 313 313 311
312 308 309 310 309 309 308 308 308 308 309 309 310 311 314 315 316 314 317 320 319 318 321 321 322 322 322 321 320 318 314 316 315 308 306 310 304 308 306 310 310 311 307 308 309 309 308 312 313 313 313 314 311 311
309 309 309 310 309 309 309 308 308 308 308 308 309 310 312 314 315 315 314 316 316 318 319 319 319 321 322 322 321 318 320 319 318 315 309 304 303 305 308 308 312 310 311 308 309 311 311 313 314 314 314 313 311 309
309 309 310 310 310 310 309 308 308 308 308 308 309 309 310 312 314 316 314 314 314 314 314 319 319 317 320 322 321 320 319 319 319 317 309 307 303 309 304 305 306 308 313 312 308 312 313 313 313 313 312 311 309 306
311 311 311 311 310 311 310 309 309 308 308 308 309 309 310 311 312 313 314 315 315 315 313 318 318 318 315 317 320 320 319 319 319 315 305 305 308 307 305 303 306 313 311 308 308 312 313 313 313 312 311 308 307 302
311 311 311 311 311 311 311 310 309 309 309 309 309 309 310 311 311 312 313 315 316 318 315 306 316 316 315 318 317 318 318 318 318 317 311 313 316 312 309 309 312 314 315 315 314 314 314 314 313 310 308 306 302 301
312 311 311 311 311 311 311 311 310 310 309 309 309 309 310 311 312 312 313 315 316 315 313 311 311 314 316 318 319 319 319 319 319 317 315 315 315 314 307 309 311 312 312 313 313 314 312 312 310 308 306 302 300 298
309 311 311 311 311 311 310 311 310 310 310 310 310 310 311 311 314 314 314 315 315 314 313 303 303 312 315 316 315 316 316 316 315 314 314 312 311 307 309 310 313 314 313 312 313 312 312 310 307 305 303 298 297 297
305 307 309 311 311 310 310 311 310 310 310 311 311 311 311 311 312 314 313 312 314 314 311 306 303 305 312 310 311 312 312 304 309 308 308 309 305 306 309 311 312 312 312 312 311 310 308 306 304 298 298 297 297 297
300 303 305 307 309 311 310 311 311 311 311 310 310 310 311 311 312 313 313 312 312 313 312 306 307 304 309 308 306 307 308 304 307 304 307 304 307 308 309 309 310 311 313 311 308 306 304 299 298 298 297 297 297 296
300 300 301 301 303 306 309 311 311 311 310 310 311 310 310 312 311 311 310 307 308 308 309 308 309 307 307 304 304 307 303 303 307 302 305 305 306 305 308 308 308 309 308 306 305 301 299 299 298 299 298 296 295 292
300 301 303 305 305 304 305 308 310 311 311 311 311 311 311 311 311 305 305 305 304 306 305 306 307 308 308 308 306 305 304 302 306 304 306 306 303 304 303 303 303 302 302 301 300 300 298 298 296 295 293 291 291 290
300 301 302 303 304 305 306 306 307 309 309 309 308 307 306 303 305 309 310 304 304 302 303 303 303 306 306 307 304 302 305 306 304 305 305 301 305 301 301 300 299 299 299 297 295 295 295 293 292 292 291 290 290 290
299 300 301 301 302 303 305 305 306 307 307 306 303 301 302 302 301 300 301 301 300 301 301 302 300 302 301 302 300 304 302 301 306 299 297 302 303 301 301 299 298 297 298 297 295 294 293 292 291 290 290 290 290 290
299 299 300 301 302 301 302 303 305 304 302 300 301 301 298 297 298 298 299 300 300 300 300 301 300 301 300 300 300 300 301 303 303 303 301 299 299 300 296 296 298 296 295 294 293 292 291 291 290 290 291 291 291 291
298 299 299 299 300 300 300 301 300 299 299 298 298 298 298 299 298 298 299 299 300 300 300 300 300 301 298 300 301 302 303 301 300 300 299 299 299 300 300 299 294 294 294 293 292 291 291 290 291 291 290 291 291 291
295 298 298 299 299 299 300 300 300 298 299 298 298 298 299 299 298 298 299 299 300 299 299 299 298 298 298 298 299 299 300 299 300 299 300 300 299 297 296 295 294 294 293 291 291 291 291 291 291 291 291 291 291 291
295 296 297 298 298 299 299 300 299 298 298 298 298 298 298 298 298 297 298 298 299 300 299 297 299 297 298 299 299 299 300 300 300 299 299 297 297 296 295 295 295 294 293 292 291 291 291 291 291 291 291 290 290 290
294 295 296 297 297 298 299 299 298 297 297 297 297 297 297 297 297 297 297 298 299 298 298 299 293 294 294 299 300 300 299 299 298 297 296 295 295 295 295 294 294 293 292 292 292 292 292 292 292 292 291 291 290 290
294 295 295 296 296 296 297 297 298 297 297 296 296 295 295 295 295 295 296 297 297 298 297 292 293 299 299 298 298 297 297 296 296 296 295 294 293 293 292 292 292 293 293 293 293 293 292 292 292 292 292 292 291 290
292 293 294 295 296 296 296 296 297 297 296 296 295 295 293 293 294 295 296 296 297 297 298 298 298 298 298 297 297 295 295 295 295 294 293 292 293 293 293 293 293 292 292 292 292 292 292 292 291 290 290 290 291 290
293 293 293 294 295 296 296 296 296 296 296 296 295 294 293 293 293 293 294 294 295 296 297 297 297 297 298 297 295 293 293 291 292 293 293 292 292 292 291 290 289 288 288 289 289 288 288 287 287 287 287 287 288 289
293 292 294 294 295 294 294 295 295 295 292 296 296 294 294 293 293 292 293 293 294 294 295 296 295 295 295 294 293 292 292 293 293 292 292 292 291 290 289 288 286 286 285 285 284 283 283 284 285 285 286 286 287 287
292 293 292 293 293 292 293 294 294 295 295 294 293 292 293 293 291 292 287 293 292 293 293 294 293 293 293 292 292 292 291 291 291 290 290 289 287 286 285 284 284 283 283 282 282 282 282 282 282 283 283 283 285 286
294 293 293 292 292 292 288 289 293 291 289 293 293 288 290 292 284 282 284 291 291 291 292 292 293 292 292 290 289 290 289 289 288 286 286 284 284 283 283 282 281 281 280 280 280 280 280 280 280 280 280 281 282 282
290 292 291 292 291 290 289 288 289 292 290 291 288 292 292 288 286 284 289 288 289 289 289 289 289 289 289 288 287 286 286 285 284 283 282 282 282 281 281 280 279 279 278 278 277 277 278 278 278 278 279 279 280 280
288 287 291 291 292 293 292 293 293 292 291 288 289 288 287 287 281 287 286 286 285 286 286 284 285 286 285 284 283 283 283 282 282 281 280 280 280 279 278 277 276 276 276 275 275 275 275 276 276 276 277 277 278 278
292 291 288 291 292 293 292 291 291 292 292 293 292 290 291 286 285 284 284 284 284 285 284 282 283 283 282 282 281 281 281 280 279 278 279 279 279 277 276 275 275 274 274 274 273 273 274 274 275 275 275 276 277 277
291 291 291 291 292 293 292 292 292 292 292 293 288 286 284 282 281 281 281 282 282 282 281 281 281 280 280 280 280 280 279 279 278 278 277 276 277 276 275 275 274 274 274 274 273 273 272 272 273 273 274 274 275 275
290 291 291 291 289 290 289 290 291 290 291 291 290 285 281 279 279 279 279 280 280 280 279 279 279 279 278 278 277 277 276 276 276 275 275 274 274 274 273 273 273 273 272 272 272 272 272 272 272 272 272 272 272 273
290 291 291 291 290 289 289 290 289 289 290 289 289 287 281 278 277 277 277 278 278 277 277 278 277 277 276 276 276 275 275 274 273 273 273 272 272 272 272 272 272 271 271 271 271 270 270 270 270 269 270 270 270 270
289 289 290 289 289 288 288 288 288 288 288 287 286 284 281 279 277 277 275 276 276 276 276 275 274 275 275 275 275 274 273 273 272 272 272 272 272 271 271 271 271 271 270 270 270 270 269 269 269 268 268 269 269 269
287 288 288 288 288 289 288 286 288 289 288 287 284 282 281 280 276 276 275 275 276 275 274 274 274 274 274 274 274 273 273 272 271 271 271 271 270 271 270 270 270 270 270 270 269 269 269 268 268 268 268 268 268 268

GFSWCAN_850_thetae_033.txt.gz
Theta_e
309 309 309 308 308 309 308 308 308 310 310 313 315 316 316 318 319 316 321 320 320 321 321 322 321 320 319 318 312 317 313 315 305 304 302 304 299 306 308 310 309 308 306 306 300 301 309 307 310 310 309 310 313 313
309 309 311 309 308 309 309 308 309 309 311 312 314 315 316 315 315 316 318 320 319 320 321 321 321 321 320 319 319 317 315 314 313 304 301 304 301 307 304 308 308 308 306 307 308 308 308 310 311 313 312 312 313 313
309 310 311 309 308 308 308 308 308 309 310 311 313 314 315 315 315 315 318 318 317 320 319 320 320 321 322 320 318 317 317 316 315 313 308 302 303 302 306 306 310 309 308 305 308 309 309 311 311 312 312 313 313 312
309 311 311 309 308 308 308 308 308 308 309 309 310 312 313 314 314 314 315 315 314 315 315 318 317 319 321 322 320 319 319 318 316 314 308 301 299 306 302 304 306 308 309 309 306 308 313 313 312 313 313 313 312 310
309 311 310 309 309 309 308 308 308 308 309 309 309 310 311 312 314 314 314 313 313 312 312 318 317 316 317 319 321 320 319 319 317 314 304 305 305 304 303 303 305 310 309 307 308 311 313 312 313 314 313 311 309 307
309 310 311 310 310 309 309 309 309 308 308 309 309 310 310 311 312 313 312 315 315 314 314 307 315 315 316 317 318 320 319 319 318 317 311 311 312 310 306 310 311 313 313 313 313 314 313 313 313 312 311 309 307 306
310 310 311 311 310 310 309 309 309 308 308 309 309 309 310 311 311 310 311 315 315 314 312 310 309 314 316 319 318 318 318 318 318 316 313 312 313 312 304 307 311 312 312 312 312 312 312 313 312 310 309 307 304 301
311 311 310 311 311 310 310 310 309 309 309 309 309 309 310 311 312 313 315 315 315 312 311 302 301 311 315 316 316 316 317 317 314 312 311 310 309 306 309 309 312 312 312 312 312 312 312 312 310 308 306 300 299 298
310 310 310 310 310 311 311 310 310 310 310 310 310 310 311 312 313 313 313 314 315 312 310 304 303 305 312 311 311 312 312 306 308 306 308 308 303 308 309 310 311 311 311 311 311 310 311 309 303 301 301 299 298 296
309 311 310 310 310 310 310 310 310 310 311 311 311 310 310 311 312 312 312 312 312 312 312 303 305 304 308 307 306 306 307 303 303 303 307 304 306 307 306 307 307 308 310 311 309 304 302 301 299 297 299 297 296 297
302 306 310 311 310 309 310 310 310 310 310 310 310 309 311 312 311 311 309 306 307 308 308 305 306 306 306 305 302 305 301 302 306 300 306 302 305 303 301 303 304 304 308 307 305 300 298 298 299 298 297 298 296 292
304 303 304 306 309 310 311 311 311 310 310 310 310 310 311 311 310 305 304 304 304 305 305 306 307 307 307 307 303 304 304 302 306 303 305 306 301 300 299 300 300 300 301 300 300 299 300 298 296 295 292 292 291 290
303 304 304 304 305 306 309 310 310 310 310 311 311 310 307 305 307 309 309 305 304 302 303 304 303 305 306 307 303 302 306 305 303 305 306 303 299 299 301 301 300 300 300 300 297 294 293 292 293 292 291 290 290 290
301 302 303 304 305 306 306 307 308 309 309 307 305 303 303 302 301 301 301 301 300 301 302 303 301 302 302 302 300 305 302 301 306 302 297 301 300 299 296 295 294 294 294 293 293 293 292 291 291 290 290 290 291 291
300 301 301 302 302 304 305 306 307 306 304 302 301 301 299 298 297 298 299 300 300 300 301 301 301 301 300 301 300 299 300 300 300 299 300 297 298 297 296 297 294 294 293 293 292 291 291 290 290 290 290 290 291 291
299 299 300 300 300 301 301 302 304 302 300 298 298 298 297 298 298 298 299 299 300 300 300 301 300 300 299 300 300 301 301 298 294 297 297 297 299 298 299 298 294 294 294 293 291 291 290 291 291 290 290 290 291 291
298 298 298 299 299 299 300 301 300 298 298 298 298 299 298 299 298 298 299 299 299 300 299 299 294 297 298 298 299 299 298 298 297 298 299 299 298 298 297 294 295 295 293 292 291 290 291 291 291 291 291 291 291 291
293 294 297 298 299 299 300 300 299 298 297 297 298 298 298 298 298 298 299 299 299 299 298 296 298 293 293 296 296 297 298 297 297 297 299 299 298 296 295 295 295 294 293 292 292 292 292 292 292 292 292 292 292 292
293 294 294 295 298 299 299 298 298 296 296 296 296 297 297 297 297 297 297 298 298 298 298 298 290 291 292 298 299 299 299 299 299 298 297 296 295 295 294 293 293 292 293 293 293 293 293 292 292 292 292 292 291 291
291 293 294 292 296 297 297 297 297 297 296 296 296 295 295 296 296 296 296 297 297 298 297 291 292 298 298 298 298 299 298 298 297 296 295 294 293 292 292 292 292 292 292 291 290 290 289 289 290 289 288 287 287 286
291 291 292 294 295 296 296 296 296 296 295 295 295 295 294 293 294 295 296 296 296 297 297 298 298 297 297 296 296 296 296 295 295 295 293 292 292 292 292 292 292 290 290 289 288 286 285 284 284 284 284 285 285 285
291 292 292 293 296 296 296 296 295 295 296 295 294 294 293 293 293 294 294 295 294 295 296 296 298 297 297 296 295 293 293 293 292 292 292 292 292 291 291 291 290 289 287 285 284 284 283 282 282 282 282 282 283 283
291 291 293 293 295 294 293 295 295 295 294 295 295 293 293 293 293 293 293 293 293 294 294 295 295 296 296 295 293 293 292 292 292 292 291 290 289 288 287 285 285 284 284 283 282 282 281 280 280 280 280 280 281 281
292 292 292 292 292 290 293 294 294 294 295 294 293 292 292 292 292 292 291 291 291 293 293 293 293 294 293 292 292 291 290 290 289 288 287 286 285 284 283 283 282 282 281 280 279 279 279 279 278 278 278 278 279 279
291 292 292 291 292 292 282 281 290 290 287 285 287 287 290 291 287 287 284 290 290 291 291 292 292 291 292 290 289 289 288 287 287 286 285 284 283 282 282 281 280 279 278 278 278 277 276 276 276 276 276 276 277 277
289 291 290 291 290 288 284 284 285 285 286 289 289 291 291 287 289 285 288 287 287 288 288 289 290 288 288 287 287 286 286 284 283 282 282 281 281 280 280 279 278 277 276 275 275 275 275 275 274 274 275 275 275 276
285 285 291 291 291 292 292 292 292 291 290 290 286 288 289 289 288 286 285 285 285 285 286 286 286 286 286 284 283 282 282 282 281 281 280 279 279 278 277 275 275 274 274 274 274 274 273 273 273 273 273 273 274 274
291 291 287 291 291 292 291 291 290 291 291 292 291 290 291 287 285 282 282 283 283 283 284 283 283 282 281 281 281 280 280 279 278 278 277 277 275 275 274 274 274 274 274 274 273 273 272 272 271 271 271 272 272 273
291 291 291 290 291 292 291 291 291 291 291 291 289 287 282 280 280 280 281 281 281 282 281 281 281 280 280 279 279 279 278 277 276 276 276 276 276 275 275 274 274 273 273 273 273 272 272 271 270 270 270 270 270 271
290 290 291 290 289 288 289 289 290 289 290 290 288 283 280 278 278 279 279 279 279 280 279 279 279 278 278 277 277 276 276 276 276 275 275 275 274 274 274 273 273 273 273 272 272 272 272 271 271 270 270 270 270 270
290 290 290 290 289 288 289 288 288 289 289 288 287 285 279 277 277 277 277 277 277 277 276 277 277 276 275 275 275 275 275 274 274 274 273 273 273 272 272 272 272 272 272 272 271 271 270 270 270 270 269 269 269 269
289 289 289 287 289 287 287 287 287 288 287 287 285 283 279 278 276 275 275 274 274 275 275 275 275 275 275 275 275 274 274 273 273 272 272 272 272 272 271 271 271 271 271 270 270 270 269 269 269 269 269 268 268 268
287 287 287 288 288 288 287 285 286 287 286 284 282 281 280 279 276 275 274 274 275 274 274 274 274 274 274 274 273 273 272 272 271 271 271 270 270 270 270 270 270 270 270 269 269 269 269 269 268 268 268 268 267 267

GFSWCAN_850_thetae_036.txt.gz
Theta_e
309 308 307 308 307 307 309 310 312 314 315 317 318 316 314 313 313 316 320 322 320 321 320 320 319 318 317 317 311 316 313 315 304 305 302 302 300 305 308 308 309 309 308 309 300 298 308 306 310 310 309 309 311 312
308 308 308 308 308 309 310 310 310 314 315 316 318 318 316 315 317 319 319 321 321 321 319 320 320 320 319 318 318 316 316 314 312 303 297 299 301 306 303 307 307 308 306 305 306 307 307 308 309 312 311 311 312 312
308 308 308 308 308 309 310 310 311 313 314 316 318 318 317 317 317 317 320 319 319 320 318 320 320 320 319 318 318 317 314 315 313 311 304 299 302 300 304 305 308 307 306 304 307 308 307 310 310 310 311 312 311 312
308 308 308 308 309 309 309 310 311 311 313 314 316 317 315 316 318 319 318 317 318 318 315 317 318 320 321 320 318 317 318 315 314 312 306 300 300 304 301 303 303 307 307 306 305 307 309 311 312 312 311 311 312 312
310 309 308 309 308 309 309 310 309 310 311 312 314 317 317 315 316 316 315 313 314 312 311 317 316 317 319 320 321 320 319 317 315 313 304 304 303 303 303 302 305 308 307 306 306 309 310 311 312 313 313 313 312 312
310 309 309 310 308 309 309 309 309 309 309 310 312 314 314 314 314 313 313 314 312 312 314 308 314 316 318 319 319 319 318 318 317 316 310 309 308 308 307 310 310 311 311 311 310 312 313 313 313 313 312 311 310 308
310 310 309 309 309 309 309 309 309 309 309 310 311 312 312 312 312 310 311 315 314 312 311 308 308 314 317 318 318 318 318 317 317 313 308 307 310 310 303 307 309 311 312 312 312 311 311 312 312 312 310 308 305 300
310 309 309 310 309 309 309 309 309 309 309 309 309 309 310 310 310 313 316 315 313 311 310 302 302 312 314 316 315 316 317 315 312 310 308 306 307 306 307 308 309 310 310 311 311 310 310 310 309 307 306 302 298 299
310 310 310 310 310 310 309 309 309 309 309 309 309 309 309 310 311 314 314 314 313 311 309 301 303 304 311 309 309 311 311 306 308 305 308 307 303 307 304 302 305 307 307 309 309 309 308 306 300 298 298 300 299 295
311 311 310 310 311 311 310 310 310 310 310 310 309 310 310 311 312 312 312 312 312 312 311 301 304 304 307 307 306 304 304 302 301 301 307 304 305 302 299 300 301 304 307 308 306 299 299 298 299 299 298 297 297 297
310 310 310 310 310 310 311 310 310 311 310 310 310 311 312 312 311 311 309 306 307 303 305 304 305 305 306 305 302 302 301 302 306 300 305 304 305 300 299 300 301 302 303 303 301 298 298 299 299 298 298 297 295 293
310 310 310 310 310 310 310 310 310 311 310 311 311 311 311 310 309 304 303 303 302 301 304 306 305 306 305 306 303 303 303 302 305 302 305 305 299 298 300 300 300 300 300 300 299 299 297 295 294 294 294 292 291 290
303 305 308 309 310 310 310 310 310 310 310 310 311 309 309 305 306 306 309 306 305 302 303 304 302 305 306 305 303 303 305 305 303 305 306 302 298 299 299 299 298 297 296 296 294 294 295 294 293 291 291 290 290 290
304 304 304 306 307 309 310 310 311 310 310 309 307 306 303 304 301 301 302 302 300 301 303 305 302 303 303 302 301 306 302 302 306 304 299 300 299 296 296 296 295 294 293 293 292 292 291 291 290 290 290 290 290 290
301 302 303 304 305 306 307 308 309 309 307 303 302 301 298 297 298 299 299 300 300 301 303 303 301 302 300 301 299 299 299 298 297 296 299 297 296 293 294 293 293 293 293 292 292 291 290 290 290 290 290 290 291 291
300 301 300 300 302 303 306 306 306 304 300 299 298 298 298 298 298 298 299 299 300 300 301 301 300 299 299 297 297 297 298 294 294 297 298 297 297 297 297 296 294 294 294 292 291 291 291 291 291 291 291 291 291 291
298 298 298 299 300 301 301 303 302 298 297 298 298 298 298 299 298 298 299 299 300 300 299 298 296 296 296 295 297 296 294 296 298 298 298 297 298 299 299 296 295 294 293 293 292 292 292 292 292 292 292 291 291 291
294 296 297 298 299 300 300 299 298 297 297 297 297 297 297 298 298 299 299 299 299 299 298 296 297 292 292 294 292 294 298 298 298 297 298 299 298 297 294 294 294 294 293 292 292 292 292 292 291 291 291 290 290 289
291 292 292 296 299 299 299 298 297 295 296 296 296 297 297 297 298 298 298 297 298 298 298 298 288 291 290 296 298 297 298 297 297 298 298 296 295 294 294 293 293 292 292 292 292 290 289 288 287 286 285 284 284 284
291 291 291 292 296 298 297 297 297 296 295 295 296 296 296 296 296 296 296 296 297 298 297 290 291 297 297 298 299 299 299 299 298 296 294 294 293 293 292 292 292 291 290 289 289 288 287 285 284 284 283 282 282 282
291 290 291 292 295 297 296 296 296 295 295 295 295 294 294 294 295 295 295 295 296 296 297 297 297 297 297 297 297 297 297 296 295 295 294 292 292 292 291 290 289 289 289 288 286 285 284 283 282 281 281 280 280 280
290 291 291 292 295 296 295 295 295 295 295 294 294 294 293 293 294 294 294 295 294 294 294 295 296 295 295 296 295 295 294 294 293 292 292 291 290 290 290 289 288 287 285 284 283 282 281 280 279 279 278 278 278 278
291 291 292 293 294 294 293 294 295 294 294 295 294 292 293 293 293 293 293 293 293 293 293 294 295 295 295 294 293 292 291 291 291 291 290 289 288 287 287 285 284 283 283 282 281 279 278 277 277 277 276 276 276 276
291 292 291 291 291 289 292 293 294 294 294 293 293 292 291 292 292 292 291 291 291 291 292 293 293 293 292 291 291 290 289 289 289 288 287 286 286 285 283 282 282 281 280 279 277 277 276 276 276 276 275 275 275 275
292 290 291 290 291 291 286 281 289 290 284 282 287 286 290 291 286 288 287 289 288 289 290 290 291 290 290 289 287 287 286 285 286 286 285 284 282 281 281 280 279 278 277 277 277 276 276 275 275 274 274 273 273 273
285 290 289 290 289 285 281 283 281 283 283 286 287 289 290 286 286 286 287 285 285 286 287 288 289 289 287 286 285 285 285 284 282 282 281 281 280 280 279 278 277 276 275 275 275 275 275 274 273 273 272 272 272 272
283 284 291 291 291 291 291 290 290 289 288 291 288 288 289 291 287 284 283 284 284 284 285 285 285 286 286 285 284 283 282 281 280 280 279 279 278 276 275 275 275 275 274 274 274 273 273 272 272 272 271 271 271 271
291 291 285 290 291 291 291 289 286 288 287 291 290 290 289 286 283 280 281 282 282 282 283 283 283 282 282 282 281 280 280 278 278 277 276 275 275 275 274 274 274 274 273 273 272 272 272 272 271 271 270 270 270 270
290 290 290 290 291 291 289 289 290 289 289 290 289 285 281 279 279 280 280 280 280 281 281 281 281 280 280 279 279 277 276 275 275 275 274 275 274 274 274 274 273 272 272 272 272 271 271 271 271 270 270 269 269 269
289 290 290 290 288 287 288 289 289 288 288 288 286 281 278 277 278 278 278 279 279 279 278 278 278 277 277 276 275 275 275 275 275 274 274 274 274 273 273 272 272 271 271 271 271 271 271 271 270 270 270 270 269 269
289 290 290 290 288 288 287 288 288 288 288 286 285 283 278 276 276 276 276 276 276 276 276 276 276 275 275 275 275 275 274 274 274 273 273 272 272 271 271 271 270 271 271 271 270 270 270 270 270 270 269 269 269 268
288 288 288 284 288 287 287 286 286 287 287 286 282 281 278 277 275 274 274 274 274 275 274 274 274 274 274 274 274 274 273 272 272 271 271 270 270 270 270 270 270 270 270 270 270 269 269 269 269 269 268 268 268 268
286 287 286 287 287 287 286 285 284 284 284 281 279 279 278 277 274 274 273 273 274 274 274 274 274 274 274 273 273 272 271 270 270 270 270 269 269 269 269 269 269 269 269 269 269 269 268 268 268 268 268 267 267 267

GFSWCAN_850_thetae_039.txt.gz
Theta_e
307 308 308 308 307 306 306 309 311 313 315 316 316 314 312 313 317 317 320 321 320 320 319 318 317 317 316 316 315 314 314 314 307 311 312 309 310 310 310 309 311 313 312 311 303 309 313 306 310 314 313 309 310 311
308 308 307 307 306 309 311 313 315 315 316 317 317 315 314 313 314 316 318 321 320 320 318 319 318 317 317 317 317 314 315 313 312 309 304 303 308 306 307 314 307 312 311 312 310 313 307 307 310 311 311 310 310 311
307 307 307 308 310 311 313 315 315 316 317 317 318 316 315 313 314 316 319 320 319 319 317 319 319 319 317 318 318 316 313 315 313 311 304 304 308 305 311 310 309 308 305 309 309 309 307 308 310 310 310 310 311 311
308 308 309 311 312 312 313 315 315 317 318 318 317 314 313 313 317 318 319 320 320 320 314 316 318 320 319 318 317 318 318 316 313 311 306 304 308 303 306 307 309 308 307 308 308 308 309 309 310 311 311 312 311 311
309 309 310 311 312 312 313 314 315 317 317 318 318 318 318 317 317 317 317 318 318 314 312 315 318 318 320 319 319 318 317 315 313 311 305 308 302 305 303 304 307 307 309 310 312 308 308 309 312 312 312 312 311 310
309 309 309 310 310 311 312 313 315 316 317 317 317 317 317 317 315 315 314 314 313 318 318 310 314 317 317 317 318 316 316 316 316 314 304 306 306 307 308 310 308 309 310 310 309 310 310 311 311 311 311 310 309 308
308 309 309 309 309 308 311 310 313 315 316 316 317 316 316 315 314 312 312 313 312 311 312 308 308 315 317 318 318 317 317 317 316 309 305 307 307 307 305 310 306 307 308 310 310 311 310 310 309 309 308 304 303 299
309 309 309 308 309 309 310 311 311 313 311 313 314 313 313 312 312 314 313 312 311 310 310 304 303 311 314 314 311 314 316 314 310 308 307 306 307 307 310 304 304 305 307 308 308 309 308 304 303 300 299 299 299 299
309 309 308 309 309 309 310 310 310 310 310 310 310 309 310 310 312 314 313 312 310 310 308 303 305 308 308 308 308 309 310 305 307 306 307 308 305 307 300 299 300 303 304 304 303 302 301 301 298 298 299 299 298 297
310 310 309 309 310 309 310 310 311 311 311 310 309 309 311 312 312 312 310 311 311 311 310 300 302 304 307 307 304 305 304 304 307 304 306 305 304 298 299 299 300 302 306 303 301 298 299 298 299 299 297 296 296 295
309 310 309 311 310 310 310 310 310 310 310 310 311 311 311 311 310 311 308 306 306 303 304 304 304 304 305 306 303 302 302 303 306 304 307 306 305 299 299 299 300 300 301 301 300 299 299 298 298 296 295 294 294 293
309 310 310 310 311 311 310 310 310 310 311 311 311 311 310 310 309 305 304 302 302 304 303 305 304 305 304 305 302 303 303 302 306 302 305 306 299 299 299 299 299 299 299 299 298 298 297 296 295 294 293 291 290 290
310 310 309 309 309 310 310 310 310 310 311 312 311 310 308 305 306 303 306 306 305 302 303 304 302 305 304 305 302 304 306 306 302 306 307 302 298 299 299 297 296 296 295 295 294 294 293 292 291 291 290 290 290 290
307 309 309 309 310 310 310 310 310 310 310 310 307 305 300 305 303 302 303 303 300 302 304 304 302 303 303 303 301 307 302 303 307 307 302 300 298 297 297 296 295 293 292 292 292 291 291 290 290 290 290 290 290 290
302 304 305 307 309 310 310 310 310 310 309 304 303 301 299 297 298 298 299 300 300 302 304 304 302 303 301 302 300 301 301 301 300 300 299 297 296 295 294 293 293 292 292 291 291 291 291 291 291 291 291 291 291 291
302 303 303 304 305 306 307 307 309 309 302 299 298 298 298 298 298 299 299 299 300 301 302 302 300 302 300 299 300 300 301 299 298 298 295 295 294 296 295 294 293 295 293 292 292 291 291 291 291 291 292 292 291 291
300 299 300 301 302 303 303 303 300 298 298 298 298 298 298 299 298 299 299 300 300 300 299 298 298 298 296 297 298 298 298 296 297 297 297 297 297 297 296 295 295 293 293 293 292 291 292 292 292 290 289 288 287 285
296 297 299 300 300 301 301 299 298 297 296 297 297 296 297 298 298 299 299 299 300 299 298 298 297 296 296 296 297 295 297 298 298 298 297 297 297 297 297 294 294 293 293 292 292 292 290 289 288 286 285 284 284 283
291 292 297 299 299 299 298 297 296 295 295 296 296 297 297 296 297 297 298 298 298 298 298 297 291 294 295 294 295 297 298 298 297 297 296 297 295 294 294 293 293 292 292 291 289 288 287 285 284 283 283 282 281 280
291 291 293 297 297 298 297 296 296 296 295 295 296 296 296 296 296 296 296 296 297 297 296 292 292 295 296 297 298 297 297 297 297 296 293 292 292 292 292 292 291 290 289 288 287 285 284 283 282 281 280 279 278 278
291 291 291 294 296 296 295 295 295 295 295 294 294 294 294 295 295 295 295 295 295 295 294 295 295 295 296 297 297 298 298 297 296 296 295 292 291 291 290 289 288 288 287 285 284 283 282 281 279 278 278 277 277 277
291 291 291 292 295 295 294 294 294 295 295 294 294 294 293 293 294 294 294 295 293 292 293 293 293 293 294 295 294 295 294 294 294 293 292 291 290 289 288 287 285 284 283 282 281 280 279 278 277 277 277 276 276 276
291 291 291 293 294 294 292 294 294 293 294 294 294 292 293 293 293 293 293 292 291 291 292 293 293 293 294 293 292 292 291 291 291 290 290 289 288 287 285 284 283 282 281 280 279 278 277 277 276 276 276 275 275 274
291 291 291 291 291 289 291 292 292 293 293 292 293 290 290 291 292 292 291 290 289 290 290 291 291 290 289 289 289 289 289 288 288 287 286 285 285 285 283 282 281 280 279 278 277 276 276 276 275 275 274 274 273 273
292 290 291 288 290 289 287 286 288 286 284 283 287 286 290 290 287 288 289 287 285 287 288 288 288 288 288 287 286 286 286 285 285 286 285 283 282 281 280 280 278 277 277 276 276 276 275 274 274 274 273 272 272 272
285 288 288 285 287 284 285 282 281 283 281 283 285 288 289 285 284 286 285 283 283 284 285 285 286 286 286 285 285 284 284 284 283 282 281 280 280 279 278 277 276 276 275 275 275 274 273 273 273 273 272 272 271 271
285 287 289 288 289 289 288 288 288 287 285 286 286 286 289 290 285 283 282 282 282 283 284 284 285 285 284 283 283 282 281 281 280 280 279 278 277 276 276 275 275 274 274 273 273 272 272 272 272 271 271 271 270 270
288 288 284 289 290 290 288 286 284 289 289 289 290 287 287 285 283 279 279 280 281 281 282 282 282 281 281 281 280 280 279 278 277 277 276 276 275 275 274 273 273 273 272 272 272 271 271 271 271 271 270 270 270 269
289 289 290 289 289 289 288 287 288 288 288 289 288 284 279 278 278 278 279 279 279 279 280 279 279 279 279 279 278 277 276 275 275 275 274 274 273 273 272 272 272 271 271 271 271 271 270 270 270 269 269 269 269 269
289 289 289 288 285 284 288 288 288 287 287 286 284 280 277 276 277 278 278 278 278 278 278 278 277 277 276 275 275 275 275 274 274 274 273 273 272 271 271 271 270 270 270 270 270 270 270 269 269 269 269 269 269 268
288 289 289 288 287 287 287 287 287 287 286 284 283 281 276 275 275 275 276 276 276 276 276 276 275 274 274 274 274 274 274 273 272 272 271 271 270 270 270 270 270 270 270 269 269 269 269 269 269 269 269 268 268 268
287 287 287 282 286 286 286 286 286 286 284 283 280 279 276 276 274 274 274 274 275 274 273 273 274 274 274 273 273 273 272 271 271 271 270 270 270 270 270 269 269 269 269 269 269 268 268 268 268 268 268 267 267 267
286 286 285 286 286 286 284 284 283 282 282 279 278 277 277 276 273 273 273 273 273 273 273 273 273 273 273 273 272 272 271 270 270 270 270 270 270 269 269 269 269 269 268 268 268 268 268 268 268 267 267 266 266 266

GFSWCAN_850_thetae_042.txt.gz
Theta_e
298 299 300 301 304 306 307 309 310 309 309 309 310 312 313 312 314 318 319 320 319 320 318 318 317 318 318 321 325 317 318 317 318 325 327 321 325 316 316 315 317 319 321 321 315 323 322 310 313 317 316 315 312 314
306 306 304 305 307 309 309 309 308 308 309 311 313 314 313 313 317 318 319 319 320 319 318 318 317 317 318 319 319 316 322 319 320 323 320 317 318 312 319 322 313 318 318 319 317 317 313 311 314 314 313 313 313 313
308 309 308 309 308 307 307 308 310 311 312 313 314 314 312 315 318 318 319 319 320 318 318 320 319 317 317 317 317 319 316 318 315 316 316 317 319 316 319 319 317 314 311 315 314 314 313 312 312 312 312 312 312 312
307 306 307 309 311 312 313 314 314 315 315 315 315 313 312 316 317 317 318 318 320 319 317 318 317 318 318 317 317 317 318 316 314 312 316 313 320 311 317 315 316 314 312 314 314 313 312 311 311 312 313 313 312 312
310 311 312 313 314 315 315 316 316 316 317 316 315 314 313 314 316 317 318 319 319 317 316 318 316 316 318 318 318 317 316 315 313 316 314 320 311 313 309 311 315 311 314 315 316 311 312 313 312 311 312 312 311 308
312 313 313 314 315 316 316 317 318 317 317 317 316 315 314 314 317 318 316 316 315 318 318 317 315 315 314 314 314 314 314 314 315 315 309 310 308 314 315 318 311 311 310 311 313 312 312 311 307 308 306 305 303 302
312 312 312 314 315 316 316 317 317 318 318 316 315 314 315 316 316 316 316 315 315 316 316 313 316 316 317 317 317 316 317 316 315 310 308 311 310 312 312 319 308 307 307 309 310 310 311 304 303 302 302 300 299 297
310 310 310 311 312 316 317 316 316 317 317 317 317 317 317 316 313 313 312 312 311 310 311 313 313 315 314 312 311 313 314 313 309 308 308 308 308 310 315 305 304 305 306 304 303 304 303 301 300 298 297 298 298 297
309 309 309 310 312 313 313 314 314 314 314 313 313 313 314 314 313 312 311 310 310 309 311 307 316 315 309 308 309 310 309 310 308 311 309 311 309 312 303 301 302 301 302 302 302 301 300 299 297 298 298 298 298 297
309 309 309 309 310 311 312 313 312 312 311 311 311 310 311 312 312 311 310 310 310 310 308 304 305 308 308 308 306 308 306 310 311 309 307 309 304 300 299 300 300 301 303 301 299 298 298 298 298 298 298 297 297 297
309 309 310 310 310 311 312 312 311 311 309 309 310 311 311 310 310 310 308 310 309 309 305 304 307 307 305 309 307 304 306 308 312 309 311 310 306 300 299 299 300 300 300 300 300 299 299 298 297 297 296 295 293 292
310 310 309 309 310 310 310 310 310 310 311 311 311 310 310 310 309 308 306 306 308 308 303 306 305 305 304 304 306 305 307 306 310 306 311 309 302 300 299 299 299 300 299 299 298 298 297 297 296 294 292 291 290 290
310 309 310 311 310 310 311 311 311 312 312 312 311 310 310 307 312 316 310 309 307 302 303 304 305 305 304 305 304 306 308 308 306 308 308 304 300 299 299 298 298 298 297 297 295 294 292 291 291 290 290 290 290 291
309 309 309 309 309 310 311 311 311 311 311 310 308 307 309 310 306 305 306 305 300 302 304 304 302 305 303 306 304 310 303 305 309 309 307 300 298 298 298 297 295 294 293 292 291 291 291 290 290 290 290 290 290 290
307 308 309 310 310 310 310 310 310 310 309 304 303 304 302 297 298 298 300 300 301 302 304 304 304 304 303 304 303 305 306 307 306 306 302 298 298 297 297 294 293 292 292 291 291 291 291 291 291 290 291 291 291 291
305 306 308 308 309 310 310 310 310 309 302 299 298 300 298 300 299 299 299 299 301 302 304 304 303 307 304 305 306 308 308 308 304 302 298 297 296 296 294 293 293 294 293 292 292 291 291 291 292 291 290 288 286 285
302 302 304 305 305 305 307 309 306 300 298 298 298 298 299 299 298 299 299 299 301 301 302 302 306 304 301 304 304 303 305 302 299 296 296 296 295 295 295 293 295 293 292 292 292 292 292 291 289 287 287 285 284 283
300 301 301 301 302 302 301 299 297 297 297 296 298 296 297 298 298 298 299 300 300 299 299 301 300 302 304 304 304 301 298 297 297 296 296 297 297 296 296 295 293 292 292 292 291 290 288 287 286 285 284 283 282 281
297 299 300 300 300 299 298 297 296 297 296 296 296 296 296 296 296 297 297 298 298 298 298 298 302 302 302 300 300 297 297 298 297 296 296 296 296 295 294 293 292 292 291 290 288 287 286 285 283 283 281 280 279 278
293 295 298 298 297 297 296 295 295 296 296 295 295 295 295 296 296 296 297 297 297 297 299 300 299 297 297 295 295 298 297 297 295 295 294 293 292 292 291 291 291 289 288 287 286 285 283 282 281 280 279 278 278 277
291 293 295 295 296 296 294 294 295 295 295 294 294 294 294 295 295 295 295 295 296 294 296 292 291 291 294 295 295 296 296 295 295 294 293 289 289 289 290 289 288 287 286 285 283 282 281 279 278 278 277 277 276 276
291 291 291 292 294 294 294 294 294 294 294 294 294 294 294 295 295 294 294 296 293 291 291 291 291 291 292 293 294 295 295 295 294 294 293 291 288 288 288 286 285 284 283 282 280 279 278 277 277 277 276 276 275 275
291 291 291 293 293 293 292 293 293 293 295 295 294 295 294 294 293 293 294 293 291 289 290 290 291 292 292 292 292 292 291 291 291 290 289 289 288 287 285 284 283 282 280 279 278 277 277 276 276 275 275 275 274 274
291 291 291 291 291 290 291 291 292 293 294 294 296 295 293 293 292 293 294 291 287 287 287 288 288 288 288 287 287 287 288 288 288 287 286 285 285 285 283 281 280 279 277 277 276 276 276 275 275 274 274 273 273 272
291 289 290 290 289 290 290 290 292 293 293 292 294 293 291 290 292 292 291 287 285 283 285 286 286 286 286 285 285 285 285 285 285 285 284 283 282 280 279 278 277 277 276 276 275 275 275 274 273 273 272 272 272 272
289 288 290 289 290 292 290 293 291 291 291 293 292 290 290 292 291 288 285 283 282 282 283 283 284 284 284 283 283 283 283 283 283 282 281 280 279 278 276 276 275 275 275 275 274 274 273 273 272 272 272 271 271 271
290 289 288 289 288 289 290 288 288 291 292 293 292 292 293 292 288 284 282 281 281 282 282 283 283 283 282 282 282 281 281 280 280 280 279 278 277 276 276 275 274 274 274 273 273 272 272 271 271 271 271 271 270 270
288 289 289 288 289 289 290 290 291 292 292 290 291 290 290 288 285 280 278 279 280 280 281 281 281 281 281 280 280 279 279 278 277 276 276 276 275 275 275 274 273 272 272 271 271 271 271 271 271 270 270 270 270 269
289 288 288 287 289 289 289 289 290 288 286 288 290 286 281 277 276 277 278 278 279 279 279 279 279 279 279 278 277 276 275 275 275 275 274 274 273 273 272 272 271 271 270 270 270 270 270 270 270 270 269 269 269 269
288 288 289 286 287 289 288 287 287 286 286 284 282 279 276 275 276 277 277 277 277 277 277 277 277 277 275 275 275 275 275 274 274 273 273 272 272 271 271 270 270 270 270 270 270 270 269 269 269 269 268 268 268 268
288 288 288 288 288 286 286 287 286 286 285 282 281 278 276 274 274 275 275 276 276 276 276 275 274 274 274 274 274 273 273 273 272 272 271 271 270 270 270 270 270 269 269 269 269 269 269 268 268 268 268 268 267 267
286 285 287 288 287 285 285 285 285 285 282 280 277 277 275 274 274 273 273 274 274 273 273 273 273 273 273 273 273 272 272 271 271 270 270 270 270 270 269 269 269 269 269 268 268 268 268 268 267 267 267 267 266 266
284 284 284 285 285 286 283 283 281 281 280 278 276 276 275 275 273 272 272 272 273 272 273 273 273 273 273 273 272 272 271 270 270 270 270 270 270 269 269 269 269 268 268 268 268 267 267 267 267 267 266 266 266 265

GFSWCAN_850_thetae_045.txt.gz
Theta_e
296 296 296 296 296 297 298 299 299 300 302 304 305 308 311 310 310 310 315 320 321 321 320 318 318 318 321 321 326 321 321 321 322 327 332 327 328 322 321 320 321 322 325 323 324 322 324 313 315 316 318 314 315 315
297 297 297 298 299 299 299 299 301 305 305 306 308 311 310 310 311 311 314 320 323 323 321 321 321 319 321 322 322 320 322 322 323 325 327 328 324 318 325 323 318 321 321 322 320 320 316 314 314 315 314 314 314 314
299 300 299 299 299 300 302 304 305 304 305 310 310 310 310 310 312 314 318 320 322 321 320 321 321 317 319 322 322 322 324 323 323 323 324 326 328 324 323 324 321 318 316 318 316 315 315 314 314 314 314 315 315 314
299 299 300 302 306 306 306 305 308 310 309 309 309 310 311 312 313 314 319 320 323 322 322 320 318 318 317 317 319 322 322 320 320 321 323 317 324 319 324 321 320 317 316 316 317 315 314 314 315 315 314 314 315 314
304 303 301 307 308 308 308 308 308 308 309 310 311 312 313 313 314 318 318 318 319 322 320 320 318 317 318 318 318 317 319 319 320 321 318 324 318 319 317 318 320 315 317 318 318 315 315 315 313 312 313 312 311 310
309 311 312 312 311 310 309 309 310 311 312 313 313 314 313 314 317 317 317 317 318 321 321 322 317 316 318 318 319 319 320 321 321 318 318 316 313 320 321 321 315 314 313 313 315 314 314 312 308 307 307 306 306 304
315 316 316 316 315 315 315 315 315 315 315 315 315 314 313 317 316 319 317 316 317 318 319 319 319 316 316 318 317 318 319 319 320 317 313 317 315 317 316 320 313 310 310 312 310 311 311 308 306 304 302 301 299 298
314 316 316 316 316 317 317 317 317 317 316 316 315 313 313 313 315 314 315 314 315 314 318 316 316 318 315 317 316 316 318 319 314 312 312 313 313 314 320 311 309 308 309 307 307 307 306 304 302 301 299 298 298 298
311 313 314 315 315 317 317 317 317 316 316 315 314 314 314 315 314 311 312 314 313 313 316 311 316 316 312 311 312 314 316 314 312 314 313 314 312 316 309 307 306 306 307 306 304 303 302 301 299 299 299 299 299 298
311 312 313 313 313 314 315 316 316 315 315 315 315 315 314 313 311 310 311 312 315 310 309 308 310 312 311 311 309 311 310 314 314 311 311 316 309 304 303 302 303 305 305 303 302 301 299 298 299 300 300 299 299 298
309 311 312 312 313 312 311 310 311 313 312 312 312 311 312 311 311 310 311 315 314 311 307 308 310 311 308 313 308 308 310 312 313 312 313 312 310 302 301 302 303 303 302 302 301 300 300 300 299 298 298 295 293 293
308 309 310 311 312 312 312 311 310 310 310 311 312 311 310 310 310 311 310 308 310 310 305 307 307 307 306 309 310 310 309 310 312 309 315 312 304 301 301 302 302 302 301 300 300 299 298 298 296 295 294 293 290 290
309 309 309 310 310 310 311 310 310 310 311 311 311 310 313 308 313 315 314 310 310 304 304 306 306 306 306 308 307 308 310 312 309 310 311 307 302 300 301 301 300 300 299 299 297 295 294 293 291 292 290 290 292 291
309 310 309 310 311 310 311 311 311 311 311 310 309 309 312 310 307 307 308 306 301 303 305 305 304 307 305 306 309 313 305 307 310 311 310 303 300 300 301 300 299 297 295 295 294 292 291 290 290 290 290 290 290 291
309 308 309 310 310 311 311 311 311 311 309 305 305 306 303 298 298 299 300 301 302 303 305 305 306 307 306 308 307 307 307 310 309 310 303 299 299 300 299 297 295 292 292 294 293 291 291 291 291 290 291 291 291 288
308 309 308 309 309 310 310 310 310 309 302 300 299 301 299 301 300 299 300 300 302 304 305 308 307 311 307 307 307 312 312 311 306 303 299 299 298 298 296 295 294 294 294 294 293 291 291 291 291 291 290 288 286 285
306 305 303 305 308 309 309 309 307 300 299 299 298 298 299 299 298 298 299 300 302 302 305 305 308 307 304 306 306 306 308 305 299 299 297 298 298 297 296 295 294 294 294 293 292 291 291 291 289 288 286 285 284 283
302 303 304 302 302 305 306 300 298 299 298 298 299 296 296 298 298 298 299 300 301 300 303 303 303 305 309 307 306 302 299 299 297 297 297 297 296 296 296 295 295 294 293 291 291 290 289 287 286 285 283 282 282 281
301 300 301 301 299 299 298 297 298 298 297 296 296 296 296 296 296 297 298 298 299 300 301 302 306 305 303 302 300 298 297 297 296 295 296 296 297 296 295 294 293 291 290 289 288 287 286 285 284 282 281 280 280 279
297 299 299 298 297 297 296 296 297 298 298 296 296 295 295 296 296 296 297 298 300 301 300 300 298 295 295 294 297 298 298 297 296 295 294 294 294 293 292 291 290 288 288 288 286 285 283 282 281 280 279 279 278 277
294 295 295 295 295 295 295 296 296 296 296 296 295 297 296 296 296 296 296 298 296 294 295 293 292 291 291 292 295 297 297 297 296 297 295 293 291 290 288 287 287 286 286 285 283 282 281 280 279 278 278 277 276 275
291 292 292 293 294 294 295 294 296 296 296 296 296 296 296 297 296 295 296 296 293 292 291 290 291 292 291 291 291 292 293 295 295 294 292 290 289 287 286 285 285 283 282 282 281 280 278 278 278 277 276 276 275 274
291 291 291 292 293 293 293 295 295 295 296 295 296 295 295 296 295 295 295 293 291 288 289 288 289 289 288 287 288 289 289 289 288 287 288 286 286 285 284 284 282 281 280 280 278 278 277 277 276 275 274 274 273 273
292 292 291 292 293 293 292 293 293 295 295 296 296 295 295 294 294 295 294 289 287 287 288 288 288 287 287 287 286 285 285 285 285 284 284 283 282 281 282 283 282 280 278 277 277 277 276 275 275 273 272 272 272 271
292 290 292 293 293 294 294 294 294 295 295 294 296 295 293 293 295 293 292 288 286 285 285 286 285 285 285 283 283 284 284 284 284 284 283 283 282 281 279 278 278 278 277 276 276 275 274 273 272 272 272 271 270 270
292 290 292 292 293 294 294 294 293 293 294 294 293 292 293 294 293 291 287 285 284 282 281 282 284 283 282 282 281 282 282 282 282 282 281 280 279 278 277 276 276 275 276 275 274 273 272 272 272 272 271 270 269 269
292 291 290 289 290 291 292 292 292 293 294 295 293 293 295 294 291 286 283 280 281 279 281 281 280 280 280 281 281 281 281 281 280 280 279 278 277 276 276 275 274 274 273 273 272 272 272 271 270 269 269 269 268 268
289 290 291 290 291 292 292 292 293 293 292 291 292 292 292 290 287 281 280 278 278 279 280 280 280 280 280 279 278 278 278 277 276 276 276 276 275 275 275 274 274 273 272 272 271 271 271 270 269 268 268 267 267 267
290 289 290 289 291 291 290 291 291 288 287 289 292 289 284 279 276 278 276 277 277 277 277 276 277 277 278 277 276 276 275 275 275 274 275 275 274 272 273 272 271 271 271 271 270 271 270 270 269 269 269 269 268 267
289 289 291 290 290 290 288 287 287 285 283 283 282 280 278 275 274 275 275 276 276 277 277 277 276 275 274 274 274 274 274 274 274 273 273 272 271 271 271 271 270 270 270 269 270 269 269 268 268 266 266 265 265 266
288 290 290 289 289 287 286 286 285 284 283 281 281 281 279 275 274 275 275 275 275 274 274 274 273 273 273 273 273 273 273 274 273 272 272 271 271 271 269 270 270 269 269 269 268 268 267 268 266 265 265 265 265 266
288 287 288 289 288 285 285 286 286 287 284 283 280 278 278 278 277 273 273 273 273 273 272 272 272 273 273 273 273 273 273 272 271 271 271 271 271 270 270 269 269 268 268 268 268 266 265 265 266 265 265 265 265 266
287 287 286 287 287 287 284 285 285 284 283 282 279 278 277 278 276 272 272 273 273 272 272 273 273 273 273 273 273 272 271 270 270 271 271 270 270 270 269 269 268 268 267 267 267 266 265 265 265 265 266 265 265 265